CW1648 Weather Reports


time (UTC)temp
F
wind
direction
speed
knots
gust
knots
rain 1hr
in
rain 24hr
in
rain mn
in
humidity
%
barometer
mb
20260510183136 78 302 0.0 1.7 0.00 0.08 0.00 51 1010.4
20260510183046 78 350 0.0 4.3 0.00 0.08 0.00 51 1010.1
20260510183035 78 336 0.0 4.3 0.00 0.08 0.00 51 1010.4
20260510182934 78 281 0.0 4.3 0.00 0.08 0.00 52 1010.4
20260510182834 78 304 0.0 4.3 0.00 0.08 0.00 51 1010.3
20260510182734 78 334 0.0 4.3 0.00 0.08 0.00 51 1010.4
20260510182727 78 277 0.0 4.3 0.00 0.08 0.00 51 1010.4
20260510182633 78 220 0.0 4.3 0.00 0.08 0.00 51 1010.4
20260510182532 78 277 0.0 4.3 0.00 0.08 0.00 51 1010.5
20260510182518 78 250 0.0 4.3 0.00 0.08 0.00 52 1010.2
20260510182430 78 254 0.0 4.3 0.00 0.08 0.00 52 1010.5
20260510182329 78 259 0.0 4.3 0.00 0.08 0.00 49 1010.5
20260510182227 78 293 0.0 4.3 0.00 0.08 0.00 48 1010.5
20260510182128 78 327 0.0 4.3 0.00 0.08 0.00 48 1010.5
20260510182027 78 316 0.0 2.6 0.00 0.08 0.00 49 1010.6
20260510182016 78 302 0.0 2.6 0.00 0.08 0.00 49 1010.2
20260510181928 78 246 0.0 2.6 0.00 0.09 0.00 49 1010.5
20260510181826 78 295 0.0 2.6 0.00 0.09 0.00 52 1010.6
20260510181730 78 289 0.0 2.6 0.00 0.09 0.00 51 1010.5
20260510181726 78 270 0.0 2.6 0.00 0.09 0.00 51 1010.5
20260510181626 78 263 0.0 2.6 0.00 0.09 0.00 51 1010.5
20260510181526 78 236 0.0 2.6 0.00 0.09 0.00 51 1010.5
20260510181516 78 265 0.0 2.6 0.00 0.09 0.00 51 1010.2
20260510181453 77 265 0.0 2.6 0.00 0.09 0.00 52 1010.5
20260510181448 78 272 0.0 2.6 0.00 0.09 0.00 52 1010.5
20260510181439 78 247 0.0 2.6 0.00 0.09 0.00 53 1010.4
20260510181138 77 326 0.0 2.6 0.00 0.09 0.00 52 1010.6
20260510181132 77 272 0.0 2.6 0.00 0.09 0.00 52 1010.5
20260510181016 77 286 0.0 2.6 0.00 0.09 0.00 52 1010.2
20260510180923 77 294 0.0 2.6 0.00 0.09 0.00 51 1010.5
20260510180822 77 281 0.0 2.6 0.00 0.09 0.00 51 1010.5
20260510180723 77 263 0.0 2.6 0.00 0.09 0.00 50 1010.5
20260510180620 77 307 0.0 2.6 0.00 0.09 0.00 52 1010.6
20260510180534 78 317 0.0 3.5 0.00 0.09 0.00 51 1010.6
20260510180529 78 334 0.0 2.6 0.00 0.09 0.00 52 1010.6
20260510180516 78 313 0.9 2.6 0.00 0.09 0.00 52 1010.3
20260510180319 77 258 0.0 3.5 0.00 0.09 0.00 52 1010.5
20260510180219 77 288 0.0 3.5 0.00 0.09 0.00 54 1010.5
20260510180118 77 289 0.0 3.5 0.00 0.10 0.00 53 1010.5
20260510180032 77 289 0.0 3.5 0.00 0.10 0.00 52 1010.2
20260510180018 77 289 0.0 3.5 0.00 0.10 0.00 52 1010.5
20260510175918 77 291 0.0 3.5 0.00 0.10 0.00 52 1010.5
20260510175816 77 309 0.0 3.5 0.00 0.10 0.00 52 1010.4
20260510175721 77 236 0.0 3.5 0.00 0.10 0.00 51 1010.4
20260510175716 77 234 0.0 3.5 0.00 0.10 0.00 51 1010.4
20260510175615 77 242 0.0 3.5 0.00 0.10 0.00 52 1010.3
20260510175532 77 279 0.0 3.5 0.00 0.10 0.00 52 1010.2
20260510175514 77 279 0.0 3.5 0.00 0.10 0.00 52 1010.4
20260510175413 77 311 0.0 1.7 0.00 0.10 0.00 53 1010.4
20260510175314 77 257 0.0 1.7 0.00 0.10 0.00 54 1010.3
20260510175222 77 261 0.0 1.7 0.00 0.10 0.00 54 1010.3
20260510175213 77 273 0.0 0.9 0.00 0.10 0.00 54 1010.3
20260510175113 77 216 0.0 0.9 0.00 0.10 0.00 54 1010.3
20260510175017 77 261 0.0 0.9 0.00 0.10 0.00 54 1010.1
20260510175013 76 244 0.0 0.9 0.00 0.10 0.00 54 1010.3
20260510174913 76 267 0.0 0.9 0.00 0.10 0.00 54 1010.4
20260510174812 76 272 0.0 0.9 0.00 0.10 0.00 53 1010.4
20260510174808 77 274 0.0 6.1 0.00 0.10 0.00 54 1010.4
20260510174800 77 223 0.0 6.1 0.00 0.10 0.00 53 1010.4
20260510174753 77 217 0.0 6.1 0.00 0.10 0.00 53 1010.5
20260510174641 77 279 0.0 6.1 0.00 0.10 0.00 53 1010.4
20260510174636 77 271 0.0 6.1 0.00 0.10 0.00 54 1010.5
20260510174517 77 274 0.0 4.3 0.00 0.10 0.00 54 1010.2
20260510174218 77 282 0.0 6.1 0.00 0.11 0.00 53 1010.5
20260510174209 77 261 0.0 6.1 0.00 0.11 0.00 53 1010.5
20260510174109 77 265 0.0 6.1 0.00 0.11 0.00 51 1010.5
20260510174017 77 261 0.0 4.3 0.00 0.11 0.00 52 1010.3
20260510174008 77 261 0.0 6.1 0.00 0.11 0.00 52 1010.6
20260510173907 77 262 0.0 6.1 0.00 0.11 0.00 53 1010.5
20260510173806 77 277 0.0 6.1 0.00 0.11 0.00 54 1010.5
20260510173715 77 278 0.0 4.3 0.00 0.11 0.00 54 1010.5
20260510173706 77 250 0.0 4.3 0.00 0.11 0.00 54 1010.5
20260510173606 77 242 0.0 3.5 0.00 0.11 0.00 53 1010.4
20260510173519 77 295 0.0 3.5 0.00 0.11 0.00 52 1010.4
20260510173517 77 329 0.0 3.5 0.00 0.11 0.00 54 1010.1
20260510173514 77 306 0.0 3.5 0.00 0.11 0.00 54 1010.4
20260510173305 77 296 0.0 3.5 0.00 0.11 0.00 52 1010.4
20260510173205 77 298 0.0 2.6 0.00 0.11 0.00 55 1010.4
20260510173104 77 306 0.0 2.6 0.00 0.11 0.00 57 1010.3
20260510173018 77 276 0.0 2.6 0.00 0.11 0.00 55 1009.9
20260510173004 77 276 0.0 2.6 0.00 0.11 0.00 55 1010.2
20260510172901 77 285 0.0 0.0 0.00 0.11 0.00 52 1010.3
20260510172820 77 242 0.0 0.0 0.00 0.11 0.00 53 1010.2
20260510172815 77 329 0.0 0.0 0.00 0.11 0.00 54 1010.3
20260510172807 77 243 0.0 0.0 0.00 0.11 0.00 53 1010.3
20260510172600 77 242 0.0 0.0 0.00 0.11 0.00 53 1010.2
20260510172517 77 241 0.0 0.9 0.00 0.11 0.00 53 1009.8
20260510172513 77 279 0.0 0.9 0.00 0.11 0.00 54 1010.2
20260510172508 77 238 0.0 0.9 0.00 0.11 0.00 53 1010.1
20260510172259 77 301 0.0 4.3 0.00 0.11 0.00 54 1010.1
20260510172213 77 272 0.0 4.3 0.00 0.11 0.00 53 1010.1
20260510172158 78 272 0.0 4.3 0.00 0.11 0.00 53 1010.1
20260510172057 78 241 0.0 4.3 0.00 0.11 0.00 54 1010.1
20260510172032 78 233 0.0 4.3 0.00 0.11 0.00 56 1009.8
20260510171957 78 232 0.0 4.3 0.00 0.11 0.00 56 1010.1
20260510171857 78 230 0.0 4.3 0.00 0.11 0.00 54 1010.1
20260510171756 78 311 0.0 7.0 0.00 0.11 0.00 52 1010.2
20260510171712 78 311 0.0 7.0 0.00 0.11 0.00 53 1010.3
20260510171656 78 311 0.0 7.0 0.00 0.11 0.00 52 1010.3
20260510171555 78 313 0.0 7.0 0.00 0.11 0.00 51 1010.3
20260510171516 78 257 0.0 7.0 0.00 0.11 0.00 52 1010.0
20260510171455 78 299 0.0 7.0 0.00 0.11 0.00 52 1010.3
20260510171356 78 325 0.0 7.0 0.00 0.11 0.00 53 1010.2
20260510171255 78 224 0.0 7.0 0.00 0.11 0.00 53 1010.2
20260510171211 78 215 0.0 7.0 0.00 0.11 0.00 52 1010.2
20260510171153 78 215 0.0 7.0 0.00 0.11 0.00 52 1010.2
20260510171105 78 239 0.0 7.0 0.00 0.11 0.00 51 1010.2
20260510171101 78 237 0.0 7.0 0.00 0.11 0.00 52 1010.2
20260510171016 78 236 0.0 7.0 0.00 0.11 0.00 51 1009.9
20260510170853 78 250 0.0 7.0 0.00 0.12 0.00 52 1010.2
20260510170827 78 273 0.0 3.5 0.00 0.12 0.00 53 1010.1
20260510170823 78 250 0.0 2.6 0.00 0.12 0.00 52 1010.1
20260510170815 78 261 0.0 4.3 0.00 0.12 0.00 52 1010.2
20260510170806 78 86 0.0 4.3 0.00 0.12 0.00 53 1010.1
20260510170516 78 252 0.0 2.6 0.00 0.12 0.00 52 1009.9
20260510170451 78 252 0.0 2.6 0.00 0.12 0.00 52 1010.2
20260510170435 78 325 0.0 0.9 0.00 0.12 0.00 52 1010.2
20260510170427 78 252 0.0 0.9 0.00 0.12 0.00 51 1010.2
20260510170308 78 288 0.0 0.9 0.00 0.12 0.00 53 1010.3
20260510170158 78 273 0.0 0.9 0.00 0.12 0.00 53 1010.3
20260510170032 79 263 0.0 0.9 0.00 0.12 0.00 52 1010.1
20260510170001 78 248 0.0 0.0 0.00 0.12 0.00 54 1010.4
20260510165957 78 288 0.0 0.9 0.00 0.12 0.00 54 1010.3
20260510165748 78 302 0.0 0.0 0.00 0.12 0.00 55 1010.2
20260510165710 78 292 0.0 0.0 0.00 0.12 0.00 56 1010.2
20260510165645 78 214 0.0 0.0 0.00 0.12 0.00 56 1010.2
20260510165544 78 213 0.0 0.0 0.00 0.12 0.00 56 1010.3
20260510165517 78 213 0.0 0.0 0.00 0.12 0.00 56 1010.0
20260510165443 78 213 0.0 0.0 0.00 0.12 0.00 55 1010.3
20260510165343 78 213 0.0 0.0 0.00 0.12 0.00 55 1010.4
20260510165243 78 213 0.0 0.0 0.00 0.12 0.00 58 1010.5
20260510165209 77 214 0.0 0.0 0.00 0.12 0.00 60 1010.5
20260510165142 77 211 0.0 0.0 0.00 0.12 0.00 60 1010.5
20260510165042 77 211 0.0 0.0 0.00 0.12 0.00 59 1010.4
20260510165032 77 211 0.0 0.0 0.00 0.12 0.00 58 1010.1
20260510164940 77 203 0.0 0.0 0.00 0.12 0.00 57 1010.4
20260510164841 77 198 0.0 0.0 0.00 0.12 0.00 55 1010.4
20260510164741 77 254 0.0 0.0 0.00 0.12 0.00 56 1010.4
20260510164708 77 227 0.0 0.0 0.00 0.12 0.00 56 1010.4
20260510164640 77 225 0.0 0.0 0.00 0.12 0.00 56 1010.3
20260510164540 77 227 0.0 0.0 0.00 0.12 0.00 56 1010.3
20260510164517 77 213 0.0 0.0 0.00 0.12 0.00 58 1010.1
20260510164440 77 246 0.0 0.0 0.00 0.12 0.00 58 1010.3
20260510164338 76 236 0.0 0.0 0.00 0.12 0.00 58 1010.3
20260510164238 76 243 0.0 0.0 0.00 0.12 0.00 59 1010.3
20260510164205 76 247 0.0 0.0 0.00 0.13 0.00 59 1010.4
20260510164137 76 248 0.0 0.0 0.00 0.13 0.00 58 1010.4
20260510164036 76 246 0.0 0.0 0.00 0.13 0.00 58 1010.5
20260510164016 76 236 0.0 0.0 0.00 0.13 0.00 58 1010.2
20260510163936 76 235 0.0 0.0 0.00 0.13 0.00 58 1010.4
20260510163848 76 233 0.0 7.0 0.00 0.13 0.00 59 1010.4
20260510163844 76 277 0.0 7.0 0.00 0.13 0.00 59 1010.4
20260510163709 76 234 0.0 7.0 0.00 0.13 0.00 59 1010.4
20260510163649 76 236 0.0 7.0 0.00 0.13 0.00 58 1010.5
20260510163644 76 258 0.0 7.0 0.00 0.13 0.00 59 1010.4
20260510163516 76 232 0.0 7.0 0.00 0.13 0.00 57 1010.2
20260510163434 76 186 0.0 7.0 0.00 0.13 0.00 57 1010.4
20260510163334 76 186 0.0 7.0 0.00 0.13 0.00 57 1010.4
20260510163300 76 194 0.0 7.0 0.00 0.14 0.00 56 1010.4
20260510163255 77 192 0.0 7.0 0.00 0.14 0.00 56 1010.4
20260510163141 77 182 0.0 7.0 0.00 0.14 0.00 57 1010.5
20260510163016 77 154 0.0 7.0 0.00 0.14 0.00 56 1010.2
20260510162931 77 180 0.0 7.0 0.00 0.14 0.00 56 1010.5
20260510162831 77 198 0.0 6.1 0.00 0.14 0.00 55 1010.5
20260510162805 77 231 0.0 6.1 0.00 0.14 0.00 57 1010.5
20260510162758 77 245 0.0 6.1 0.00 0.14 0.00 59 1010.6
20260510162753 77 212 0.0 6.1 0.00 0.14 0.00 56 1010.6
20260510162747 77 229 0.0 6.1 0.00 0.14 0.00 57 1010.5
20260510162518 77 236 0.0 6.1 0.00 0.14 0.00 59 1010.3
20260510162430 77 249 0.0 6.1 0.00 0.15 0.00 61 1010.6
20260510162328 77 224 0.0 6.1 0.00 0.15 0.00 60 1010.5
20260510162202 77 226 0.0 6.1 0.00 0.15 0.00 57 1010.5
20260510162128 76 171 0.0 6.1 0.00 0.15 0.00 56 1010.5
20260510162033 76 248 0.0 6.1 0.00 0.15 0.00 57 1010.3
20260510162028 76 262 0.0 6.1 0.00 0.15 0.00 57 1010.5
20260510161926 76 268 0.0 6.1 0.00 0.15 0.00 58 1010.5
20260510161839 76 195 0.0 0.9 0.00 0.16 0.00 58 1010.5
20260510161835 76 232 0.0 0.9 0.00 0.15 0.00 59 1010.4
20260510161700 76 212 0.0 0.9 0.00 0.16 0.00 57 1010.5
20260510161636 76 235 0.0 0.9 0.00 0.16 0.00 57 1010.5
20260510161632 76 209 0.0 0.9 0.00 0.16 0.00 57 1010.5
20260510161532 76 225 0.0 0.0 0.00 0.16 0.00 57 1010.3
20260510161422 76 222 0.0 0.9 0.00 0.16 0.00 61 1010.5
20260510161321 76 292 0.0 0.9 0.00 0.16 0.00 58 1010.5
20260510161220 76 125 0.0 2.6 0.00 0.16 0.00 57 1010.5
20260510161158 76 125 0.0 2.6 0.00 0.16 0.00 60 1010.5
20260510161120 76 124 0.0 2.6 0.00 0.16 0.00 60 1010.5
20260510161019 76 240 0.0 2.6 0.00 0.16 0.00 60 1010.4
20260510161016 76 242 0.0 2.6 0.00 0.16 0.00 60 1010.2
20260510160918 76 250 0.0 2.6 0.00 0.16 0.00 61 1010.4
20260510160818 75 251 0.0 2.6 0.00 0.16 0.00 59 1010.4
20260510160717 75 252 0.0 2.6 0.00 0.16 0.00 60 1010.3
20260510160658 75 252 0.0 2.6 0.00 0.16 0.00 58 1010.4
20260510160617 75 242 0.0 2.6 0.00 0.16 0.00 58 1010.4
20260510160517 75 242 0.0 2.6 0.00 0.16 0.00 59 1010.2
20260510160416 75 240 0.0 2.6 0.00 0.16 0.00 61 1010.4
20260510160315 75 216 0.0 2.6 0.00 0.16 0.00 62 1010.4
20260510160214 75 223 0.0 0.9 0.00 0.16 0.00 61 1010.4
20260510160155 75 225 0.0 0.9 0.00 0.16 0.00 61 1010.4
20260510160115 75 225 0.0 0.9 0.00 0.16 0.00 61 1010.4
20260510160017 75 242 0.0 0.9 0.00 0.16 0.00 61 1010.1
20260510160015 75 242 0.0 0.9 0.00 0.16 0.00 61 1010.3
20260510155914 75 194 0.0 0.9 0.00 0.16 0.00 59 1010.3
20260510155815 75 192 0.0 0.9 0.00 0.16 0.00 57 1010.3
20260510155714 75 190 0.0 0.9 0.00 0.16 0.00 57 1010.3
20260510155654 75 228 0.0 0.9 0.00 0.16 0.00 57 1010.4
20260510155613 75 205 0.0 0.9 0.00 0.16 0.00 58 1010.4
20260510155517 75 251 0.0 0.9 0.00 0.16 0.00 57 1010.1
20260510155514 74 250 0.0 0.9 0.00 0.16 0.00 57 1010.3
20260510155413 74 261 0.0 0.9 0.00 0.16 0.00 58 1010.3
20260510155313 74 255 0.0 0.0 0.00 0.16 0.00 58 1010.4
20260510155213 74 215 0.0 0.0 0.00 0.16 0.00 61 1010.3
20260510155155 74 185 0.0 0.0 0.00 0.16 0.00 61 1010.2
20260510155112 74 243 0.0 0.9 0.00 0.16 0.00 61 1010.2
20260510155017 74 267 0.0 0.9 0.00 0.16 0.00 62 1007.4
20260510155012 74 267 0.0 0.9 0.00 0.16 0.00 62 1007.6
20260510154924 74 275 0.0 1.7 0.00 0.16 0.00 63 1007.3
20260510154920 74 265 0.0 0.9 0.00 0.16 0.00 61 1007.6
20260510154711 74 261 0.0 3.5 0.00 0.16 0.00 61 1007.4
20260510154653 74 261 0.0 3.5 0.00 0.16 0.00 61 1007.4
20260510154609 74 261 0.0 3.5 0.00 0.16 0.00 62 1007.3
20260510154517 74 261 0.0 3.5 0.00 0.16 0.00 60 1007.1
20260510154509 74 261 0.0 3.5 0.00 0.16 0.00 60 1007.3
20260510154408 74 277 0.0 3.5 0.00 0.16 0.00 60 1007.3
20260510154307 74 317 0.0 4.3 0.00 0.16 0.00 61 1007.1
20260510154226 74 257 0.9 7.0 0.00 0.16 0.00 60 1007.0
20260510154221 74 248 0.9 7.0 0.00 0.16 0.00 62 1007.1
20260510154215 74 252 0.9 7.0 0.00 0.16 0.00 62 1007.1
20260510154047 74 13 0.0 5.2 0.00 0.16 0.00 61 1006.7
20260510154006 74 313 0.9 7.0 0.00 0.16 0.00 61 1006.9
20260510153917 74 252 0.0 7.0 0.00 0.16 0.00 61 1006.8
20260510153904 74 206 0.9 7.0 0.00 0.16 0.00 59 1006.9
20260510153805 74 251 0.0 7.0 0.00 0.16 0.00 61 1006.9
20260510153756 74 281 0.0 7.0 0.00 0.16 0.00 61 1006.8
20260510153604 74 245 0.0 7.0 0.00 0.16 0.00 61 1006.8
20260510153517 73 234 0.0 5.2 0.00 0.16 0.00 60 1006.5
20260510153503 73 234 0.0 7.0 0.00 0.16 0.00 60 1006.7
20260510153416 73 254 0.0 7.0 0.00 0.16 0.00 62 1006.7
20260510153412 73 267 0.0 7.0 0.00 0.16 0.00 60 1006.7
20260510153202 73 217 0.0 2.6 0.00 0.16 0.00 63 1006.7
20260510153152 73 231 0.0 2.6 0.00 0.16 0.00 64 1006.7
20260510153116 73 251 0.0 1.7 0.00 0.16 0.00 64 1006.7
20260510153111 73 222 0.0 1.7 0.00 0.16 0.00 63 1006.7
20260510153017 73 251 0.0 1.7 0.00 0.16 0.00 64 1006.5
20260510152902 73 282 0.0 0.9 0.00 0.16 0.00 65 1006.6
20260510152802 72 309 0.0 0.9 0.00 0.16 0.00 65 1006.6
20260510152700 72 303 0.0 0.9 0.00 0.16 0.00 63 1006.5
20260510152651 72 303 0.0 0.9 0.00 0.16 0.00 63 1006.5
20260510152600 72 310 0.0 0.9 0.00 0.16 0.00 63 1006.5
20260510152517 72 289 0.0 0.9 0.00 0.16 0.00 66 1006.3
20260510152459 72 287 0.0 0.9 0.00 0.16 0.00 67 1006.5
20260510152359 72 257 0.0 0.9 0.00 0.16 0.00 66 1006.5
20260510152259 71 257 0.0 0.9 0.00 0.16 0.00 67 1006.4
20260510152151 71 257 0.0 0.9 0.00 0.16 0.00 67 1006.3
20260510152123 71 260 0.0 0.0 0.00 0.16 0.00 67 1006.4
20260510152119 71 229 0.0 0.0 0.00 0.16 0.00 66 1006.4
20260510152114 71 257 0.0 0.0 0.00 0.16 0.00 67 1006.3
20260510152016 71 258 0.0 0.0 0.00 0.16 0.00 66 1006.2
20260510151754 71 234 0.0 0.0 0.00 0.16 0.00 67 1006.3
20260510151654 71 237 0.0 0.0 0.00 0.16 0.00 66 1006.3
20260510151650 71 253 0.0 0.0 0.00 0.16 0.00 66 1006.3
20260510151553 71 205 0.0 0.0 0.00 0.16 0.00 66 1006.3
20260510151517 70 250 0.0 0.9 0.00 0.16 0.00 67 1006.1
20260510151453 70 244 0.0 0.9 0.00 0.16 0.00 67 1006.3
20260510151405 70 238 0.0 1.7 0.00 0.16 0.00 67 1006.2
20260510151401 70 244 0.0 1.7 0.00 0.16 0.00 67 1006.2
20260510151149 70 231 0.0 1.7 0.00 0.16 0.00 66 1006.2
20260510151052 70 231 0.0 1.7 0.00 0.16 0.00 68 1006.2
20260510151016 70 177 0.0 1.7 0.00 0.16 0.00 68 1006.0
20260510150952 70 177 0.0 1.7 0.00 0.16 0.00 68 1006.2
20260510150851 70 177 0.0 1.7 0.00 0.16 0.00 68 1006.2
20260510150751 70 200 0.0 1.7 0.00 0.16 0.00 68 1006.1
20260510150648 70 220 0.0 1.7 0.00 0.16 0.00 69 1006.0
20260510150601 70 220 0.0 1.7 0.00 0.16 0.00 68 1005.8
20260510150550 70 220 0.0 1.7 0.00 0.16 0.00 69 1006.0
20260510150449 70 219 0.0 1.7 0.00 0.16 0.00 68 1006.0
20260510150348 70 219 0.0 1.7 0.00 0.16 0.00 69 1006.1
20260510150248 70 220 0.0 0.9 0.00 0.16 0.00 67 1006.0
20260510150206 70 217 0.0 3.5 0.00 0.16 0.00 68 1006.1
20260510150156 70 220 0.0 3.5 0.00 0.16 0.00 67 1006.1
20260510150017 70 217 0.0 3.5 0.00 0.16 0.00 69 1005.9
20260510145945 70 217 0.0 3.5 0.00 0.16 0.00 69 1006.1
20260510145859 70 208 0.0 3.5 0.00 0.16 0.00 68 1006.2
20260510145853 70 217 0.0 3.5 0.00 0.16 0.00 68 1006.3
20260510145703 69 207 0.0 3.5 0.00 0.16 0.00 68 1006.2
20260510145652 69 209 0.0 3.5 0.00 0.16 0.00 69 1006.2
20260510145516 69 232 0.0 3.5 0.00 0.16 0.00 69 1005.9
20260510145443 69 232 0.0 3.5 0.00 0.16 0.00 69 1006.1
20260510145343 69 251 0.0 3.5 0.00 0.16 0.00 69 1006.0
20260510145256 69 256 0.0 3.5 0.00 0.16 0.00 70 1006.0
20260510145247 69 258 0.0 0.0 0.00 0.16 0.00 71 1006.1
20260510145040 68 257 0.0 0.0 0.00 0.16 0.00 71 1006.2
20260510145017 68 257 0.0 0.0 0.00 0.16 0.00 71 1005.9
20260510144940 68 238 0.0 0.0 0.00 0.16 0.00 71 1006.1
20260510144840 68 234 0.0 0.0 0.00 0.16 0.00 71 1006.2
20260510144739 68 232 0.0 0.0 0.00 0.16 0.00 71 1006.1
20260510144647 68 242 0.0 0.0 0.00 0.16 0.00 73 1006.1
20260510144639 68 242 0.0 0.0 0.00 0.16 0.00 72 1006.1
20260510144537 67 242 0.0 0.0 0.00 0.16 0.00 73 1006.1
20260510144517 67 244 0.0 0.0 0.00 0.16 0.00 73 1006.0
20260510144437 67 244 0.0 0.0 0.00 0.16 0.00 74 1006.1
20260510144337 67 249 0.0 0.0 0.00 0.16 0.00 75 1006.1
20260510144237 67 248 0.0 0.0 0.00 0.16 0.00 76 1006.1
20260510144147 67 248 0.0 0.0 0.00 0.16 0.00 77 1006.2
20260510144136 67 257 0.0 0.0 0.00 0.16 0.00 77 1006.2
20260510144036 67 251 0.0 1.7 0.00 0.16 0.00 76 1006.2
20260510144032 67 271 0.0 1.7 0.00 0.16 0.00 76 1006.1
20260510143934 67 278 0.0 1.7 0.00 0.16 0.00 76 1006.2
20260510143834 67 155 0.0 2.6 0.00 0.16 0.00 75 1006.1
20260510143734 67 154 0.0 2.6 0.00 0.16 0.00 74 1006.1
20260510143647 67 170 0.0 2.6 0.00 0.16 0.00 75 1006.1
20260510143633 67 171 0.0 2.6 0.00 0.16 0.00 75 1006.1
20260510143547 67 205 0.0 2.6 0.00 0.16 0.00 77 1006.2
20260510143532 67 182 0.0 2.6 0.00 0.16 0.00 77 1006.2
20260510143517 67 217 0.0 2.6 0.00 0.16 0.00 78 1006.3
20260510143508 67 211 0.0 2.6 0.00 0.16 0.00 77 1006.3
20260510143354 67 210 0.0 2.6 0.00 0.16 0.00 78 1006.2
20260510143345 67 217 0.0 2.6 0.00 0.16 0.00 78 1006.3
20260510143031 66 217 0.0 2.6 0.00 0.16 0.00 77 1006.3
20260510143017 66 217 0.0 2.6 0.00 0.16 0.00 78 1006.3
20260510142930 66 217 0.0 2.6 0.00 0.16 0.00 78 1006.4
20260510142829 66 226 0.0 1.7 0.00 0.16 0.00 78 1006.3
20260510142729 66 234 0.0 0.9 0.00 0.16 0.00 79 1006.3
20260510142643 66 224 0.0 0.9 0.00 0.16 0.00 79 1006.4
20260510142628 66 226 0.0 0.9 0.00 0.16 0.00 79 1006.4
20260510142601 66 228 0.0 0.9 0.00 0.16 0.00 78 1006.3
20260510142528 66 228 0.0 0.9 0.00 0.16 0.00 79 1006.3
20260510142442 66 223 0.0 0.9 0.00 0.16 0.00 78 1006.4
20260510142436 66 229 0.0 0.9 0.00 0.16 0.00 78 1006.4
20260510142228 66 223 0.0 0.9 0.00 0.16 0.00 78 1006.4
20260510142142 66 218 0.0 0.9 0.00 0.16 0.00 79 1006.3
20260510142127 66 209 0.0 0.0 0.00 0.16 0.00 79 1006.3
20260510142041 66 185 0.0 0.0 0.00 0.16 0.00 78 1006.3
20260510142036 66 205 0.0 0.0 0.00 0.16 0.00 78 1006.3
20260510142017 66 185 0.0 0.0 0.00 0.16 0.00 78 1006.2
20260510141853 66 202 0.0 0.9 0.00 0.16 0.00 79 1006.3
20260510141740 66 215 0.0 0.9 0.00 0.16 0.00 79 1006.4
20260510141732 65 221 0.0 0.9 0.00 0.16 0.00 80 1006.5
20260510141524 65 225 0.0 0.9 0.00 0.16 0.00 79 1006.6
20260510141517 65 225 0.0 0.9 0.00 0.16 0.00 79 1006.4
20260510141424 65 225 0.0 0.9 0.00 0.16 0.00 80 1006.5
20260510141337 65 224 0.0 0.9 0.00 0.16 0.00 81 1006.5
20260510141331 65 225 0.0 0.9 0.00 0.16 0.00 80 1006.5
20260510141122 65 246 0.0 0.9 0.00 0.16 0.00 81 1006.5
20260510141021 64 244 0.0 0.9 0.00 0.16 0.00 81 1006.5
20260510141017 64 244 0.0 0.9 0.00 0.16 0.00 81 1006.2
20260510140921 64 244 0.0 0.9 0.00 0.16 0.00 82 1006.4
20260510140821 64 232 0.0 0.9 0.00 0.16 0.00 82 1006.4
20260510140720 64 188 0.0 0.9 0.00 0.16 0.00 80 1006.4
20260510140639 64 188 0.0 0.9 0.00 0.16 0.00 80 1006.3
20260510140619 64 190 0.0 0.9 0.00 0.16 0.00 81 1006.3
20260510140519 64 281 0.0 0.9 0.00 0.16 0.00 81 1006.4
20260510140517 64 282 0.0 0.9 0.00 0.16 0.00 81 1006.2
20260510140418 64 282 0.0 0.9 0.00 0.16 0.00 81 1006.4
20260510140318 64 282 0.0 0.9 0.00 0.16 0.00 81 1006.5
20260510140218 64 282 0.0 0.9 0.00 0.16 0.00 82 1006.6
20260510140136 64 282 0.0 0.9 0.00 0.16 0.00 82 1006.6
20260510140117 64 282 0.0 0.9 0.00 0.16 0.00 83 1006.6
20260510140017 64 252 0.0 0.9 0.00 0.16 0.00 84 1006.6
20260510135915 63 256 0.0 0.9 0.00 0.16 0.00 84 1006.8
20260510135814 63 255 0.0 0.9 0.00 0.16 0.00 84 1006.8
20260510135749 63 259 0.0 0.9 0.00 0.16 0.00 85 1006.7
20260510135742 62 261 0.0 0.9 0.00 0.16 0.00 85 1006.7
20260510135737 63 256 0.0 0.9 0.00 0.16 0.00 84 1006.7
20260510135729 63 259 0.0 0.9 0.00 0.16 0.00 84 1006.7
20260510135517 63 261 0.0 0.0 0.00 0.16 0.00 85 1007.3
20260510135412 62 240 0.0 0.9 0.00 0.16 0.00 86 1007.3
20260510135312 62 240 0.0 0.9 0.00 0.16 0.00 87 1007.6
20260510135212 62 236 0.0 0.9 0.00 0.16 0.00 87 1006.9
20260510135135 62 234 0.0 0.9 0.00 0.16 0.00 88 1006.9
20260510135111 62 228 0.0 0.9 0.00 0.16 0.00 88 1006.8
20260510135016 62 221 0.0 0.9 0.00 0.16 0.00 87 1006.7
20260510135010 62 221 0.0 0.9 0.00 0.16 0.00 87 1006.8
20260510134910 61 215 0.0 0.9 0.00 0.16 0.00 87 1006.8
20260510134809 61 215 0.0 0.9 0.00 0.16 0.00 88 1006.8
20260510134736 61 216 0.0 0.9 0.00 0.16 0.00 88 1006.8
20260510134728 61 217 0.0 0.9 0.00 0.16 0.00 88 1006.8
20260510134617 61 217 0.0 0.9 0.00 0.16 0.00 88 1007.0
20260510134517 61 217 0.0 0.9 0.00 0.16 0.00 90 1006.8
20260510134408 61 261 0.0 0.9 0.00 0.16 0.00 90 1006.9
20260510134308 60 261 0.0 0.9 0.00 0.16 0.00 90 1006.9
20260510134207 60 261 0.0 0.9 0.00 0.16 0.00 89 1006.9
20260510134133 60 261 0.0 0.9 0.00 0.16 0.00 90 1006.9
20260510134107 60 261 0.0 0.9 0.00 0.16 0.00 90 1006.8
20260510134017 60 261 0.0 0.9 0.00 0.16 0.00 90 1007.0
20260510134006 60 261 0.0 0.9 0.00 0.16 0.00 90 1007.1
20260510133906 60 261 0.0 0.9 0.00 0.16 0.00 91 1006.9
20260510133820 60 252 0.0 0.0 0.00 0.16 0.00 92 1007.7
20260510133814 60 252 0.0 0.0 0.00 0.16 0.00 92 1007.7
20260510133630 60 252 0.0 0.0 0.00 0.16 0.00 92 1007.7
20260510133604 60 252 0.0 0.0 0.00 0.16 0.00 92 1007.6
20260510133517 59 259 0.0 0.0 0.00 0.16 0.00 92 1007.0
20260510133503 59 259 0.0 0.0 0.00 0.16 0.00 92 1007.1
20260510133403 59 260 0.0 0.0 0.00 0.16 0.00 92 1009.6
20260510133302 59 260 0.0 0.0 0.00 0.16 0.00 92 1009.6
20260510133202 59 260 0.0 0.0 0.00 0.16 0.00 93 1009.6
20260510133130 59 260 0.0 0.0 0.00 0.16 0.00 93 1009.6
20260510133102 59 260 0.0 0.0 0.00 0.16 0.00 93 1009.4
20260510133017 59 260 0.0 0.0 0.00 0.16 0.00 93 1009.3
20260510133001 59 260 0.0 0.0 0.00 0.16 0.00 93 1009.4
20260510132901 59 260 0.0 0.0 0.00 0.16 0.00 93 1009.4
20260510132815 59 260 0.0 0.0 0.00 0.16 0.00 94 1007.4
20260510132809 59 260 0.0 0.0 0.00 0.16 0.00 94 1009.1
20260510132629 59 260 0.0 0.0 0.00 0.16 0.00 94 1007.4
20260510132559 59 260 0.0 0.0 0.00 0.16 0.00 94 1007.4
20260510132517 59 260 0.0 0.0 0.00 0.16 0.00 95 1009.3
20260510132459 59 260 0.0 0.0 0.00 0.16 0.00 95 1009.4
20260510132358 58 259 0.0 0.0 0.00 0.16 0.00 95 1009.4
20260510132258 58 259 0.0 0.0 0.00 0.16 0.00 95 1009.7
20260510132157 58 259 0.0 0.0 0.00 0.16 0.00 95 1009.3
20260510132126 58 259 0.0 0.0 0.00 0.16 0.00 95 1009.3
20260510132057 58 259 0.0 0.0 0.00 0.16 0.00 95 1009.3
20260510132017 58 360 0.0 0.0 0.00 0.16 0.00 95 1009.2
20260510131957 58 0 0.0 0.0 0.00 0.16 0.00 95 1009.3
20260510131918 58 0 0.0 0.0 0.00 0.16 0.00 96 1010.1
20260510131914 58 0 0.0 0.0 0.00 0.16 0.00 96 1010.4
20260510131908 58 0 0.0 0.0 0.00 0.16 0.00 95 1009.9
20260510131859 58 0 0.0 0.0 0.00 0.16 0.00 96 1009.9
20260510131746 58 0 0.0 0.0 0.00 0.16 0.00 96 1010.0
20260510131740 58 0 0.0 0.0 0.00 0.16 0.00 96 1010.0
20260510131517 58 360 0.0 0.0 0.00 0.16 0.00 96 1010.3
20260510131127 57 0 0.0 1.7 0.00 0.16 0.00 96 1010.3
20260510131103 57 0 0.0 1.7 0.00 0.16 0.00 96 1010.0
20260510131058 57 0 0.0 1.7 0.00 0.16 0.00 96 1010.1
20260510131017 57 360 0.0 1.7 0.00 0.16 0.00 96 1010.0
20260510130852 57 0 0.0 1.7 0.00 0.16 0.00 97 1009.4
20260510130847 57 0 0.0 1.7 0.00 0.16 0.00 96 1009.8
20260510130748 57 0 0.0 1.7 0.00 0.16 0.00 96 1009.6
20260510130730 57 0 0.0 1.7 0.00 0.16 0.00 96 1009.4
20260510130547 57 0 0.0 1.7 0.00 0.16 0.00 97 1009.7
20260510130517 57 360 0.0 1.7 0.00 0.16 0.00 97 1009.7
20260510130500 57 0 0.0 1.7 0.00 0.16 0.00 97 1009.9
20260510130455 57 0 0.0 1.7 0.00 0.16 0.00 97 1009.7
20260510130245 57 0 0.0 1.7 0.00 0.16 0.00 97 1010.0
20260510130220 57 0 0.0 0.9 0.00 0.16 0.00 97 1010.2
20260510130213 56 0 0.0 0.9 0.00 0.16 0.00 97 1010.2
20260510130203 57 0 0.0 0.9 0.00 0.16 0.00 97 1010.2
20260510130017 57 360 0.0 0.0 0.00 0.16 0.00 97 1010.2
20260510125842 56 0 0.0 0.9 0.00 0.16 0.00 97 1010.3
20260510125742 56 0 0.0 0.9 0.00 0.16 0.00 97 1010.3
20260510125621 56 0 0.0 0.9 0.00 0.16 0.00 97 1010.3
20260510125541 56 0 0.0 0.9 0.00 0.16 0.00 97 1010.4
20260510125517 57 360 0.0 0.0 0.00 0.16 0.00 97 1010.4
20260510125441 57 0 0.0 0.9 0.00 0.16 0.00 97 1010.4
20260510125344 57 0 0.0 0.9 0.00 0.16 0.00 97 1010.4
20260510125339 57 263 0.0 0.0 0.00 0.16 0.00 97 1010.5
20260510125240 57 0 0.0 0.9 0.00 0.16 0.00 97 1010.5
20260510125225 57 263 0.0 0.0 0.00 0.16 0.00 97 1010.5
20260510125039 57 263 0.0 0.0 0.00 0.16 0.00 97 1010.4
20260510125017 57 263 0.0 0.0 0.00 0.16 0.00 97 1010.4
20260510124936 56 263 0.0 0.0 0.00 0.16 0.00 97 1010.4
20260510124836 56 263 0.0 0.0 0.00 0.16 0.00 97 1010.4
20260510124736 56 263 0.0 0.0 0.00 0.16 0.00 97 1010.3
20260510124656 56 263 0.0 0.0 0.00 0.16 0.00 97 1010.0
20260510124646 56 263 0.0 0.0 0.00 0.16 0.00 97 1010.1
20260510124517 56 263 0.0 0.0 0.00 0.16 0.00 97 1009.9
20260510124435 56 263 0.0 0.0 0.00 0.16 0.00 97 1009.9
20260510124335 56 0 0.0 0.0 0.00 0.16 0.00 97 1009.8
20260510124234 56 0 0.0 0.0 0.00 0.16 0.00 97 1009.3
20260510124120 56 0 0.0 0.0 0.00 0.16 0.00 97 1009.2
20260510124033 56 0 0.0 0.0 0.00 0.16 0.00 97 1009.8
20260510124017 56 360 0.0 0.0 0.00 0.16 0.00 97 1009.7
20260510123933 56 0 0.0 0.0 0.00 0.16 0.00 97 1009.7
20260510123846 56 266 0.0 0.0 0.00 0.16 0.00 97 1010.3
20260510123841 56 266 0.0 0.0 0.00 0.16 0.00 97 1010.2
20260510123631 56 272 0.0 0.0 0.00 0.16 0.00 97 1010.2
20260510123618 56 272 0.0 0.0 0.00 0.16 0.00 97 1010.2
20260510123532 56 273 0.0 0.0 0.00 0.16 0.00 97 1010.2
20260510123430 56 273 0.0 0.0 0.00 0.16 0.00 97 1010.2
20260510123330 56 273 0.0 0.0 0.00 0.16 0.00 97 1010.1
20260510123229 56 273 0.0 0.0 0.00 0.16 0.00 97 1010.1
20260510123117 55 273 0.0 0.0 0.00 0.16 0.00 97 1010.1
20260510123043 55 273 0.0 0.0 0.00 0.16 0.00 97 1010.1
20260510123037 55 273 0.0 0.0 0.00 0.16 0.00 97 1010.1
20260510122827 55 273 0.0 0.0 0.00 0.16 0.00 97 1009.9
20260510122727 55 273 0.0 0.0 0.00 0.16 0.00 97 1009.9
20260510122644 55 272 0.0 0.0 0.00 0.16 0.00 97 1009.7
20260510122639 55 272 0.0 0.0 0.00 0.16 0.00 97 1009.8
20260510122635 55 273 0.0 0.0 0.00 0.16 0.00 97 1009.8
20260510122518 55 271 0.0 0.0 0.00 0.16 0.00 97 1009.7
20260510122424 55 0 0.0 0.0 0.00 0.16 0.00 97 1009.7
20260510122324 55 0 0.0 0.0 0.00 0.16 0.00 97 1009.3
20260510122223 54 0 0.0 0.0 0.00 0.16 0.00 97 1008.8
20260510122114 54 0 0.0 0.0 0.00 0.16 0.00 97 1009.4
20260510122047 54 360 0.0 0.0 0.00 0.16 0.00 97 1010.0
20260510122022 54 0 0.0 0.0 0.00 0.16 0.00 97 1009.8
20260510121920 54 0 0.0 0.0 0.00 0.16 0.00 97 1010.0
20260510121820 54 0 0.0 0.0 0.00 0.16 0.00 97 1010.1
20260510121719 54 0 0.0 0.0 0.00 0.16 0.00 97 1010.1
20260510121614 54 0 0.0 0.0 0.00 0.16 0.00 97 1010.2
20260510121518 54 0 0.0 0.0 0.00 0.16 0.00 97 1010.2
20260510121418 54 0 0.0 0.0 0.00 0.16 0.00 97 1010.1
20260510121318 54 0 0.0 0.0 0.00 0.16 0.00 97 1010.0
20260510121217 54 0 0.0 0.0 0.00 0.16 0.00 97 1010.0
20260510121113 54 0 0.0 0.0 0.00 0.16 0.00 97 1009.7
20260510121017 54 360 0.0 0.0 0.00 0.16 0.00 97 1009.7
20260510121015 54 0 0.0 0.0 0.00 0.16 0.00 97 1009.6
20260510120916 54 0 0.0 0.0 0.00 0.16 0.00 97 1009.7
20260510120858 54 0 0.0 0.0 0.00 0.16 0.00 97 1009.9
20260510120853 54 0 0.0 0.0 0.00 0.16 0.00 97 1009.8
20260510120845 54 0 0.0 0.0 0.00 0.16 0.00 97 1009.7
20260510120836 54 0 0.0 0.0 0.00 0.16 0.00 97 1010.0
20260510120517 54 360 0.0 0.0 0.00 0.16 0.00 97 1009.9
20260510120412 54 0 0.0 0.0 0.00 0.16 0.00 97 1009.9
20260510120312 54 0 0.0 0.0 0.00 0.16 0.00 97 1010.0
20260510120211 54 0 0.0 0.0 0.00 0.16 0.00 97 1009.9
20260510120110 54 0 0.0 0.0 0.00 0.16 0.00 97 1009.9
20260510120017 54 360 0.0 0.0 0.00 0.16 0.00 97 1009.9
20260510120010 54 0 0.0 0.0 0.00 0.16 0.00 97 1009.9
20260510115909 54 0 0.0 0.0 0.00 0.16 0.00 97 1009.9
20260510115808 54 0 0.0 0.0 0.00 0.16 0.00 97 1009.9
20260510115708 54 0 0.0 0.0 0.00 0.16 0.00 97 1009.9
20260510115607 54 0 0.0 0.0 0.00 0.16 0.00 97 1009.9
20260510115517 54 360 0.0 0.0 0.00 0.16 0.00 97 1009.9
20260510115507 54 0 0.0 0.0 0.00 0.16 0.00 97 1009.9
20260510115406 54 0 0.0 0.0 0.00 0.16 0.00 97 1009.9
20260510115306 53 0 0.0 0.0 0.00 0.16 0.00 97 1009.9
20260510115205 53 0 0.0 0.0 0.00 0.16 0.00 97 1009.9
20260510115112 53 0 0.0 0.0 0.00 0.16 0.00 97 1009.9
20260510115104 53 0 0.0 0.0 0.00 0.16 0.00 97 1009.9
20260510115032 53 360 0.0 0.0 0.00 0.16 0.00 97 1009.8
20260510115004 53 0 0.0 0.0 0.00 0.16 0.00 97 1009.8
20260510114904 53 0 0.0 0.0 0.00 0.16 0.00 97 1009.9
20260510114803 53 0 0.0 0.0 0.00 0.16 0.00 97 1009.8
20260510114701 53 0 0.0 0.0 0.00 0.16 0.00 97 1009.8
20260510114601 53 0 0.0 0.0 0.00 0.16 0.00 97 1009.7
20260510114517 53 360 0.0 0.0 0.00 0.16 0.00 97 1009.6
20260510114501 53 0 0.0 0.0 0.00 0.16 0.00 97 1009.6
20260510114400 53 0 0.0 0.0 0.00 0.16 0.00 97 1009.6
20260510114300 53 0 0.0 0.0 0.00 0.16 0.00 97 1009.6
20260510114200 53 0 0.0 0.0 0.00 0.16 0.00 97 1009.6
20260510114113 53 0 0.0 0.0 0.00 0.16 0.00 97 1009.6
20260510114059 53 0 0.0 0.0 0.00 0.16 0.00 97 1009.6
20260510114017 53 360 0.0 0.0 0.00 0.16 0.00 97 1009.6
20260510113958 53 0 0.0 0.0 0.00 0.16 0.00 97 1009.6
20260510113858 53 0 0.0 0.0 0.00 0.16 0.00 97 1009.4
20260510113757 52 0 0.0 0.0 0.00 0.16 0.00 97 1009.4
20260510113657 52 0 0.0 0.0 0.00 0.16 0.00 97 1009.5
20260510113625 52 0 0.0 0.0 0.00 0.16 0.00 97 1009.6
20260510113618 52 0 0.0 0.0 0.00 0.16 0.00 97 1009.6
20260510113518 52 360 0.0 0.0 0.00 0.16 0.00 97 1009.6
20260510113505 52 0 0.0 0.0 0.00 0.16 0.00 97 1009.6
20260510113342 52 0 0.0 0.0 0.00 0.16 0.00 97 1009.6
20260510113337 52 0 0.0 0.0 0.00 0.16 0.00 97 1009.5
20260510113329 52 0 0.0 0.0 0.00 0.16 0.00 97 1009.6
20260510113054 52 0 0.0 0.0 0.00 0.16 0.00 97 1009.6
20260510113017 52 360 0.0 0.0 0.00 0.16 0.00 97 1009.7
20260510112954 52 0 0.0 0.0 0.00 0.16 0.00 97 1009.6
20260510112853 52 0 0.0 0.0 0.00 0.16 0.00 97 1009.7
20260510112753 52 0 0.0 0.0 0.00 0.16 0.00 97 1009.7
20260510112653 52 0 0.0 0.0 0.00 0.16 0.00 97 1009.7
20260510112612 52 0 0.0 0.0 0.00 0.16 0.00 97 1009.7
20260510112551 52 0 0.0 0.0 0.00 0.16 0.00 97 1009.7
20260510112532 52 360 0.0 0.0 0.00 0.16 0.00 97 1009.7
20260510112451 52 0 0.0 0.0 0.00 0.16 0.00 97 1009.6
20260510112350 52 0 0.0 0.0 0.00 0.16 0.00 97 1009.6
20260510112250 52 0 0.0 0.0 0.00 0.16 0.00 97 1009.6
20260510112149 52 0 0.0 0.0 0.00 0.16 0.00 97 1009.7
20260510112115 52 0 0.0 0.0 0.00 0.16 0.00 97 1009.8
20260510112109 52 0 0.0 0.0 0.00 0.16 0.00 97 1009.8
20260510112017 52 360 0.0 0.0 0.00 0.16 0.00 97 1009.9
20260510111955 52 0 0.0 0.0 0.00 0.16 0.00 97 1009.8
20260510111841 51 0 0.0 0.0 0.00 0.16 0.00 97 1009.7
20260510111837 51 0 0.0 0.0 0.00 0.16 0.00 97 1009.8
20260510111828 51 0 0.0 0.0 0.00 0.16 0.00 97 1009.7
20260510111543 51 0 0.0 0.0 0.00 0.16 0.00 97 1009.8
20260510111517 52 360 0.0 0.0 0.00 0.16 0.00 97 1009.8
20260510111457 51 0 0.0 0.0 0.00 0.16 0.00 97 1009.8
20260510111452 51 0 0.0 0.0 0.00 0.16 0.00 97 1009.7
20260510111242 51 0 0.0 0.0 0.00 0.16 0.00 97 1009.7
20260510111142 51 0 0.0 0.0 0.00 0.16 0.00 97 1009.7
20260510111110 51 0 0.0 0.0 0.00 0.16 0.00 97 1009.7
20260510111056 51 0 0.0 0.0 0.00 0.16 0.00 97 1009.6
20260510111051 51 0 0.0 0.0 0.00 0.16 0.00 97 1009.7
20260510111017 51 360 0.0 0.0 0.00 0.16 0.00 97 1009.7
20260510110841 51 0 0.0 0.0 0.00 0.16 0.00 97 1009.6
20260510110741 51 0 0.0 0.0 0.00 0.16 0.00 97 1009.6
20260510110641 51 0 0.0 0.0 0.00 0.16 0.00 97 1009.6
20260510110609 51 0 0.0 0.0 0.00 0.16 0.00 97 1009.6
20260510110602 51 0 0.0 0.0 0.00 0.16 0.00 97 1009.6
20260510110517 51 360 0.0 0.0 0.00 0.16 0.00 97 1009.7
20260510110448 51 0 0.0 0.0 0.00 0.16 0.00 97 1009.6
20260510110255 51 0 0.0 0.0 0.00 0.16 0.00 97 1009.6
20260510110250 51 0 0.0 0.0 0.00 0.16 0.00 97 1009.6
20260510110108 51 0 0.0 0.0 0.00 0.16 0.00 97 1009.6
20260510110040 51 0 0.0 0.0 0.00 0.16 0.00 97 1009.6
20260510110017 51 360 0.0 0.0 0.00 0.16 0.00 97 1009.6
20260510105939 51 0 0.0 0.0 0.00 0.16 0.00 97 1009.5
20260510105838 51 0 0.0 0.0 0.00 0.16 0.00 97 1009.6
20260510105823 51 0 0.0 0.0 0.00 0.16 0.00 97 1009.6
20260510105737 51 0 0.0 0.0 0.00 0.16 0.00 97 1009.6
20260510105714 51 0 0.0 0.0 0.00 0.16 0.00 97 1009.6
20260510105537 51 0 0.0 0.0 0.00 0.16 0.00 97 1009.6
20260510105516 51 360 0.0 0.0 0.00 0.16 0.00 97 1009.7
20260510105458 51 0 0.0 0.0 0.00 0.16 0.00 97 1009.6
20260510105345 51 0 0.0 0.0 0.00 0.16 0.00 97 1009.6
20260510105135 51 0 0.0 0.0 0.00 0.16 0.00 97 1009.6
20260510105107 51 0 0.0 0.0 0.00 0.16 0.00 97 1009.7
20260510105035 51 0 0.0 0.0 0.00 0.16 0.00 97 1009.7
20260510105017 51 360 0.0 0.0 0.00 0.16 0.00 97 1009.8
20260510104935 51 0 0.0 0.0 0.00 0.16 0.00 97 1009.7
20260510104834 51 0 0.0 0.0 0.00 0.16 0.00 97 1009.8
20260510104734 51 0 0.0 0.0 0.00 0.16 0.00 97 1009.7
20260510104635 51 0 0.0 0.0 0.00 0.16 0.00 97 1009.7
20260510104605 51 0 0.0 0.0 0.00 0.16 0.00 97 1009.6
20260510104534 51 0 0.0 0.0 0.00 0.16 0.00 97 1009.6
20260510104531 51 360 0.0 0.0 0.00 0.16 0.00 97 1009.7
20260510104434 50 0 0.0 0.0 0.00 0.16 0.00 97 1009.6
20260510104333 50 0 0.0 0.0 0.00 0.16 0.00 97 1009.6
20260510104247 50 0 0.0 0.0 0.00 0.16 0.00 96 1009.6
20260510104241 50 0 0.0 0.0 0.00 0.16 0.00 96 1009.6
20260510104103 50 0 0.0 0.0 0.00 0.16 0.00 96 1009.6
20260510104032 50 0 0.0 0.0 0.00 0.16 0.00 96 1009.6
20260510104017 50 360 0.0 0.0 0.00 0.16 0.00 96 1009.6
20260510103945 50 0 0.0 0.0 0.00 0.16 0.00 96 1009.5
20260510103940 50 0 0.0 0.0 0.00 0.16 0.00 96 1009.5
20260510103730 50 0 0.0 0.0 0.00 0.16 0.00 96 1009.4
20260510103649 50 0 0.0 0.0 0.00 0.16 0.00 96 1009.4
20260510103644 50 0 0.0 0.0 0.00 0.16 0.00 96 1009.5
20260510103636 50 0 0.0 0.0 0.00 0.16 0.00 96 1009.4
20260510103548 50 360 0.0 0.0 0.00 0.16 0.00 96 1009.6
20260510103444 50 0 0.0 0.0 0.00 0.16 0.00 96 1009.5
20260510103439 50 0 0.0 0.0 0.00 0.16 0.00 96 1009.5
20260510103229 50 0 0.0 0.0 0.00 0.16 0.00 96 1009.5
20260510103131 50 0 0.0 0.0 0.00 0.16 0.00 96 1009.6
20260510103104 50 0 0.0 0.0 0.00 0.16 0.00 96 1009.5
20260510103029 50 0 0.0 0.0 0.00 0.16 0.00 96 1009.5
20260510103017 50 360 0.0 0.0 0.00 0.16 0.00 96 1009.6
20260510102930 50 0 0.0 0.0 0.00 0.16 0.00 96 1009.5
20260510102828 50 0 0.0 0.0 0.00 0.16 0.00 96 1009.4
20260510102728 50 0 0.0 0.0 0.00 0.16 0.00 96 1009.4
20260510102641 50 0 0.0 0.0 0.00 0.16 0.00 96 1009.3
20260510102636 50 0 0.0 0.0 0.00 0.16 0.00 96 1009.3
20260510102516 50 360 0.0 0.0 0.00 0.16 0.00 96 1009.4
20260510102436 50 0 0.0 0.0 0.00 0.16 0.00 96 1009.3
20260510102427 50 0 0.0 0.0 0.00 0.16 0.00 96 1009.3
20260510102226 50 0 0.0 0.0 0.00 0.16 0.00 96 1009.3
20260510102205 50 0 0.0 0.0 0.00 0.16 0.00 96 1009.3
20260510102025 50 0 0.0 0.0 0.00 0.16 0.00 96 1009.3
20260510102017 50 360 0.0 0.0 0.00 0.16 0.00 96 1009.5
20260510101922 50 0 0.0 0.0 0.00 0.16 0.00 96 1009.4
20260510101837 50 0 0.0 0.0 0.00 0.16 0.00 96 1009.3
20260510101833 50 0 0.0 0.0 0.00 0.16 0.00 96 1009.3
20260510101623 50 0 0.0 0.0 0.00 0.16 0.00 96 1009.3
20260510101557 50 0 0.0 0.0 0.00 0.16 0.00 96 1009.3
20260510101532 50 360 0.0 0.0 0.00 0.16 0.00 96 1009.3
20260510101523 50 0 0.0 0.0 0.00 0.16 0.00 96 1009.3
20260510101422 50 0 0.0 0.0 0.00 0.16 0.00 96 1009.2
20260510101354 50 0 0.0 0.0 0.00 0.16 0.00 96 1009.3
20260510101321 50 0 0.0 0.0 0.00 0.16 0.00 96 1009.2
20260510101247 50 0 0.0 0.0 0.00 0.16 0.00 96 1009.3
20260510101243 50 0 0.0 0.0 0.00 0.16 0.00 96 1009.2
20260510101234 50 0 0.0 0.0 0.00 0.16 0.00 96 1009.2
20260510101017 50 360 0.0 0.0 0.00 0.16 0.00 96 1009.4
20260510100919 50 0 0.0 0.0 0.00 0.16 0.00 96 1009.3
20260510100819 50 0 0.0 0.0 0.00 0.16 0.00 96 1009.2
20260510100718 51 0 0.0 0.0 0.00 0.16 0.00 96 1009.2
20260510100617 51 0 0.0 0.0 0.00 0.16 0.00 96 1009.1
20260510100554 51 0 0.0 0.0 0.00 0.16 0.00 96 1009.2
20260510100517 51 0 0.0 0.0 0.00 0.16 0.00 96 1009.2
20260510100417 51 0 0.0 0.0 0.00 0.16 0.00 96 1009.2
20260510100327 51 0 0.0 0.0 0.00 0.16 0.00 96 1009.2
20260510100321 51 0 0.0 0.0 0.00 0.16 0.00 96 1009.2
20260510100317 51 0 0.0 0.0 0.00 0.16 0.00 96 1009.2
20260510100308 51 0 0.0 0.0 0.00 0.16 0.00 96 1009.2
20260510100016 51 360 0.0 0.0 0.00 0.16 0.00 96 1009.4
20260510095915 51 0 0.0 0.0 0.00 0.16 0.00 96 1009.3
20260510095811 51 0 0.0 0.0 0.00 0.16 0.00 96 1009.3
20260510095724 51 0 0.0 0.0 0.00 0.16 0.00 97 1009.3
20260510095720 51 0 0.0 0.0 0.00 0.16 0.00 96 1009.3
20260510095552 51 0 0.0 0.0 0.00 0.16 0.00 97 1009.4
20260510095524 51 0 0.0 0.0 0.00 0.16 0.00 97 1009.4
20260510095520 51 0 0.0 0.0 0.00 0.16 0.00 96 1009.4
20260510095517 51 360 0.0 0.0 0.00 0.16 0.00 96 1009.5
20260510095310 51 0 0.0 0.0 0.00 0.16 0.00 96 1009.3
20260510095210 51 0 0.0 0.0 0.00 0.16 0.00 96 1009.3
20260510095110 51 0 0.0 0.0 0.00 0.16 0.00 96 1009.3
20260510095053 51 0 0.0 0.0 0.00 0.16 0.00 96 1009.3
20260510095017 51 360 0.0 0.0 0.00 0.16 0.00 96 1009.4
20260510095010 51 0 0.0 0.0 0.00 0.16 0.00 96 1009.3
20260510094909 51 0 0.0 0.0 0.00 0.16 0.00 96 1009.4
20260510094808 51 0 0.0 0.0 0.00 0.16 0.00 96 1009.3
20260510094708 51 0 0.0 0.0 0.00 0.16 0.00 96 1009.3
20260510094645 51 0 0.0 0.0 0.00 0.16 0.00 96 1009.3
20260510094641 50 0 0.0 0.0 0.00 0.16 0.00 96 1009.3
20260510094633 51 0 0.0 0.0 0.00 0.16 0.00 96 1009.3
20260510094629 51 0 0.0 0.0 0.00 0.16 0.00 96 1009.3
20260510094624 51 0 0.0 0.0 0.00 0.16 0.00 96 1009.3
20260510094614 51 0 0.0 0.0 0.00 0.16 0.00 96 1009.2
20260510094518 51 360 0.0 0.0 0.00 0.16 0.00 96 1009.3
20260510094137 50 0 0.0 0.0 0.00 0.16 0.00 96 1009.3
20260510094129 50 0 0.0 0.0 0.00 0.16 0.00 96 1009.4
20260510094124 50 0 0.0 0.0 0.00 0.16 0.00 96 1009.4
20260510094032 51 360 0.0 0.0 0.00 0.16 0.00 96 1009.4
20260510093805 50 0 0.0 0.0 0.00 0.16 0.00 96 1009.2
20260510093705 51 0 0.0 0.0 0.00 0.16 0.00 96 1009.3
20260510093604 50 0 0.0 0.0 0.00 0.16 0.00 96 1009.3
20260510093550 50 0 0.0 0.0 0.00 0.16 0.00 96 1009.3
20260510093518 50 360 0.0 0.0 0.00 0.16 0.00 96 1009.3
20260510093504 50 0 0.0 0.0 0.00 0.16 0.00 96 1009.2
20260510093403 50 0 0.0 0.0 0.00 0.16 0.00 96 1009.2
20260510093308 50 0 0.0 0.0 0.00 0.16 0.00 96 1009.3
20260510093303 50 0 0.0 0.0 0.00 0.16 0.00 96 1009.2
20260510093203 50 0 0.0 0.0 0.00 0.16 0.00 96 1009.2
20260510093154 50 0 0.0 0.0 0.00 0.16 0.00 96 1009.3
20260510093016 50 360 0.0 0.0 0.00 0.16 0.00 96 1009.3
20260510093002 50 0 0.0 0.0 0.00 0.16 0.00 96 1009.2
20260510092859 50 0 0.0 0.0 0.00 0.16 0.00 96 1009.2
20260510092812 50 0 0.0 0.0 0.00 0.16 0.00 96 1009.2
20260510092808 50 0 0.0 0.0 0.00 0.16 0.00 96 1009.2
20260510092616 51 0 0.0 0.0 0.00 0.16 0.00 96 1009.0
20260510092607 50 0 0.0 0.0 0.00 0.16 0.00 96 1009.1
20260510092517 50 360 0.0 0.0 0.00 0.16 0.00 96 1009.1
20260510092357 51 0 0.0 0.0 0.00 0.16 0.00 96 1008.9
20260510092257 51 0 0.0 0.0 0.00 0.16 0.00 96 1008.8
20260510092156 51 0 0.0 0.0 0.00 0.16 0.00 96 1008.8
20260510092045 51 0 0.0 0.0 0.00 0.16 0.00 96 1008.8
20260510092017 51 360 0.0 0.0 0.00 0.16 0.00 96 1009.0
20260510091956 51 0 0.0 0.0 0.00 0.16 0.00 96 1008.9
20260510091855 51 0 0.0 0.0 0.00 0.16 0.00 96 1008.9
20260510091755 51 0 0.0 0.0 0.00 0.16 0.00 97 1008.8
20260510091655 51 0 0.0 0.0 0.00 0.16 0.00 96 1008.9
20260510091602 51 360 0.0 0.0 0.00 0.16 0.00 96 1008.9
20260510091543 51 0 0.0 0.0 0.00 0.16 0.00 96 1008.8
20260510091454 51 0 0.0 0.0 0.00 0.16 0.00 96 1008.8
20260510091406 51 0 0.0 0.0 0.00 0.16 0.00 96 1008.8
20260510091402 51 0 0.0 0.0 0.00 0.16 0.00 96 1008.8
20260510091151 51 0 0.0 0.0 0.00 0.16 0.00 97 1008.8
20260510091043 51 0 0.0 0.0 0.00 0.16 0.00 97 1008.8
20260510091018 51 0 0.0 0.0 0.00 0.16 0.00 96 1008.9
20260510091013 51 0 0.0 0.0 0.00 0.16 0.00 96 1008.9
20260510091009 51 0 0.0 0.0 0.00 0.16 0.00 97 1008.8
20260510090649 51 0 0.0 0.0 0.00 0.16 0.00 96 1008.9
20260510090639 51 0 0.0 0.0 0.00 0.16 0.00 96 1008.9
20260510090625 51 0 0.0 0.0 0.00 0.16 0.00 96 1008.9
20260510090517 51 360 0.0 0.0 0.00 0.16 0.00 96 1009.0
20260510090357 51 0 0.0 0.0 0.00 0.16 0.00 96 1008.9
20260510090148 51 0 0.0 0.0 0.00 0.16 0.00 96 1009.0
20260510090040 51 0 0.0 0.0 0.00 0.16 0.00 96 1009.1
20260510090017 51 360 0.0 0.0 0.00 0.16 0.00 96 1009.2
20260510085946 51 0 0.0 0.0 0.00 0.16 0.00 96 1009.1
20260510085846 51 0 0.0 0.0 0.00 0.16 0.00 96 1009.2
20260510085811 51 0 0.0 0.0 0.00 0.16 0.00 96 1009.1
20260510085806 51 0 0.0 0.0 0.00 0.16 0.00 96 1009.2
20260510085802 51 0 0.0 0.0 0.00 0.16 0.00 96 1009.1
20260510085643 51 0 0.0 0.0 0.00 0.16 0.00 96 1009.2
20260510085517 51 360 0.0 0.0 0.00 0.16 0.00 96 1009.3
20260510085443 51 0 0.0 0.0 0.00 0.16 0.00 96 1009.2
20260510085413 50 0 0.0 0.0 0.00 0.16 0.00 96 1009.3
20260510085243 51 0 0.0 0.0 0.00 0.16 0.00 96 1009.3
20260510085152 51 0 0.0 0.0 0.00 0.16 0.00 96 1009.2
20260510085142 50 0 0.0 0.0 0.00 0.16 0.00 96 1009.2
20260510085017 50 360 0.0 0.0 0.00 0.16 0.00 96 1009.3
20260510084942 50 0 0.0 0.0 0.00 0.16 0.00 96 1009.2
20260510084854 50 0 0.0 0.0 0.00 0.16 0.00 96 1009.2
20260510084850 50 0 0.0 0.0 0.00 0.16 0.00 96 1009.2
20260510084640 50 0 0.0 0.0 0.00 0.16 0.00 96 1009.2
20260510084559 50 0 0.0 0.0 0.00 0.16 0.00 96 1009.2
20260510084551 50 0 0.0 0.0 0.00 0.16 0.00 96 1009.2
20260510084517 50 360 0.0 0.0 0.00 0.16 0.00 96 1009.3
20260510084339 50 0 0.0 0.0 0.00 0.16 0.00 96 1009.3
20260510084239 50 0 0.0 0.0 0.00 0.16 0.00 96 1009.3
20260510084138 50 0 0.0 0.0 0.00 0.16 0.00 97 1009.3
20260510084035 50 0 0.0 0.0 0.00 0.16 0.00 96 1009.4
20260510084017 50 360 0.0 0.0 0.00 0.16 0.00 96 1009.5
20260510083940 50 0 0.0 0.0 0.00 0.16 0.00 96 1009.4
20260510083935 50 0 0.0 0.0 0.00 0.16 0.00 97 1009.3
20260510083930 50 0 0.0 0.0 0.00 0.16 0.00 97 1009.2
20260510083922 50 0 0.0 0.0 0.00 0.16 0.00 97 1009.3
20260510083546 50 0 0.0 0.0 0.00 0.16 0.00 97 1009.2
20260510083517 50 360 0.0 0.0 0.00 0.16 0.00 97 1009.3
20260510083335 50 0 0.0 0.0 0.00 0.16 0.00 97 1009.2
20260510083235 50 0 0.0 2.6 0.00 0.16 0.00 97 1009.3
20260510083134 50 0 0.0 2.6 0.00 0.16 0.00 97 1009.4
20260510083052 50 0 0.0 2.6 0.00 0.16 0.00 97 1009.3
20260510083044 50 0 0.0 2.6 0.00 0.16 0.00 97 1009.4
20260510083017 50 360 0.0 2.6 0.00 0.16 0.00 97 1009.4
20260510082832 50 0 0.0 2.6 0.00 0.16 0.00 97 1009.2
20260510082732 50 0 0.0 2.6 0.00 0.16 0.00 97 1009.2
20260510082632 50 0 0.0 2.6 0.00 0.16 0.00 96 1009.3
20260510082531 50 0 0.0 2.6 0.00 0.16 0.00 96 1009.5
20260510082517 50 360 0.0 2.6 0.00 0.16 0.00 96 1009.6
20260510082456 50 0 0.0 0.0 0.00 0.16 0.00 96 1009.2
20260510082450 50 0 0.0 2.6 0.00 0.16 0.00 96 1009.5
20260510082337 50 0 0.0 2.6 0.00 0.16 0.00 96 1009.5
20260510082328 50 0 0.0 1.7 0.00 0.16 0.00 96 1009.4
20260510082210 50 0 0.0 0.0 0.00 0.16 0.00 96 1009.1
20260510082117 50 360 0.0 0.0 0.00 0.16 0.00 96 1009.2
20260510081950 50 0 0.0 0.0 0.00 0.16 0.00 97 1009.5
20260510081946 50 0 0.0 0.0 0.00 0.16 0.00 96 1009.1
20260510081628 50 0 0.0 0.0 0.00 0.16 0.00 97 1009.5
20260510081527 50 0 0.0 0.0 0.00 0.16 0.00 97 1009.5
20260510081517 50 360 0.0 0.0 0.00 0.16 0.00 97 1009.5
20260510081427 50 0 0.0 0.0 0.00 0.16 0.00 97 1009.4
20260510081326 49 0 0.0 0.0 0.00 0.16 0.00 97 1009.1
20260510081226 49 0 0.0 0.0 0.00 0.16 0.00 97 1008.9
20260510081123 49 0 0.0 0.0 0.00 0.16 0.00 97 1009.0
20260510081023 49 0 0.0 0.0 0.00 0.16 0.00 97 1009.1
20260510081017 49 360 0.0 0.0 0.00 0.16 0.00 96 1009.4
20260510080922 49 0 0.0 0.0 0.00 0.16 0.00 96 1009.3
20260510080822 49 0 0.0 0.0 0.00 0.16 0.00 96 1009.4
20260510080722 49 0 0.0 0.0 0.00 0.16 0.00 96 1009.4
20260510080622 49 0 0.0 0.0 0.00 0.16 0.00 96 1009.1
20260510080521 49 0 0.0 0.0 0.00 0.16 0.00 96 1008.9
20260510080517 49 360 0.0 0.0 0.00 0.16 0.00 96 1009.1
20260510080434 49 0 0.0 0.0 0.00 0.16 0.00 96 1009.1
20260510080429 49 0 0.0 0.0 0.00 0.16 0.00 96 1009.0
20260510080220 49 0 0.0 0.0 0.00 0.16 0.00 96 1009.3
20260510080119 49 0 0.0 0.0 0.00 0.16 0.00 96 1009.3
20260510080040 49 0 0.0 0.0 0.00 0.16 0.00 96 1009.3
20260510080032 49 360 0.0 0.0 0.00 0.16 0.00 96 1009.1
20260510075927 49 0 0.0 0.0 0.00 0.16 0.00 96 1009.0
20260510075718 49 0 0.0 0.0 0.00 0.16 0.00 96 1008.6
20260510075617 49 0 0.0 0.0 0.00 0.16 0.00 96 1008.5
20260510075517 49 360 0.0 0.0 0.00 0.16 0.00 96 1008.5
20260510075514 49 0 0.0 0.0 0.00 0.16 0.00 96 1008.5
20260510075414 49 0 0.0 0.0 0.00 0.16 0.00 96 1008.5
20260510075313 49 0 0.0 0.0 0.00 0.16 0.00 96 1008.5
20260510075226 49 0 0.0 0.0 0.00 0.16 0.00 96 1008.5
20260510075222 49 0 0.0 0.0 0.00 0.16 0.00 96 1008.5
20260510075017 49 360 0.0 0.0 0.00 0.16 0.00 96 1008.5
20260510075011 49 0 0.0 0.0 0.00 0.16 0.00 96 1008.5
20260510074936 49 0 0.0 0.0 0.00 0.16 0.00 96 1008.4
20260510074931 49 0 0.0 0.0 0.00 0.16 0.00 96 1008.4
20260510074927 49 0 0.0 0.0 0.00 0.16 0.00 96 1008.5
20260510074608 49 0 0.0 0.0 0.00 0.16 0.00 96 1008.5
20260510074526 49 0 0.0 0.0 0.00 0.16 0.00 96 1008.5
20260510074518 49 360 0.0 0.0 0.00 0.16 0.00 96 1008.4
20260510074508 49 0 0.0 0.0 0.00 0.16 0.00 96 1008.4
20260510074407 49 0 0.0 0.0 0.00 0.16 0.00 96 1008.4
20260510074308 49 0 0.0 0.0 0.00 0.16 0.00 96 1008.3
20260510074208 49 0 0.0 0.0 0.00 0.16 0.00 96 1008.4
20260510074107 49 0 0.0 0.0 0.00 0.16 0.00 96 1008.4
20260510074017 49 360 0.0 0.0 0.00 0.16 0.00 96 1008.4
20260510074007 49 0 0.0 0.0 0.00 0.16 0.00 96 1008.4
20260510073906 49 0 0.0 0.0 0.00 0.16 0.00 96 1008.5
20260510073806 49 0 0.0 0.0 0.00 0.16 0.00 96 1008.5
20260510073706 49 0 0.0 0.0 0.00 0.16 0.00 96 1008.5
20260510073619 49 0 0.0 0.0 0.00 0.16 0.00 96 1008.5
20260510073610 49 0 0.0 0.0 0.00 0.16 0.00 96 1008.5
20260510073548 49 360 0.0 0.0 0.00 0.16 0.00 96 1008.5
20260510073405 49 0 0.0 0.0 0.00 0.16 0.00 96 1008.5
20260510073305 49 0 0.0 0.0 0.00 0.16 0.00 96 1008.5
20260510073231 49 0 0.0 0.0 0.00 0.16 0.00 96 1008.5
20260510073118 49 0 0.0 0.0 0.00 0.16 0.00 96 1008.5
20260510073109 49 0 0.0 0.0 0.00 0.16 0.00 96 1008.5
20260510073017 49 360 0.0 0.0 0.00 0.16 0.00 96 1008.5
20260510072903 49 0 0.0 0.0 0.00 0.16 0.00 96 1008.5
20260510072824 49 0 0.0 0.0 0.00 0.16 0.00 96 1008.5
20260510072711 49 0 0.0 0.0 0.00 0.16 0.00 96 1008.5
20260510072523 48 0 0.0 0.0 0.00 0.16 0.00 96 1008.5
20260510072517 48 360 0.0 0.0 0.00 0.16 0.00 96 1008.4
20260510072501 48 0 0.0 0.0 0.00 0.16 0.00 96 1008.4
20260510072402 48 0 0.0 0.0 0.00 0.16 0.00 96 1008.5
20260510072305 48 0 0.0 0.0 0.00 0.16 0.00 96 1008.5
20260510072201 48 0 0.0 0.0 0.00 0.16 0.00 96 1008.5
20260510072101 48 0 0.0 0.0 0.00 0.16 0.00 96 1008.5
20260510072025 48 0 0.0 0.0 0.00 0.16 0.00 96 1008.5
20260510072017 48 360 0.0 0.0 0.00 0.16 0.00 96 1008.4
20260510072000 48 0 0.0 0.0 0.00 0.16 0.00 96 1008.4
20260510071900 48 0 0.0 0.0 0.00 0.16 0.00 96 1008.5
20260510071759 48 0 0.0 0.0 0.00 0.16 0.00 96 1008.5
20260510071659 48 0 0.0 0.0 0.00 0.16 0.00 96 1008.5
20260510071559 48 0 0.0 0.0 0.00 0.16 0.00 96 1008.5
20260510071532 48 360 0.0 0.0 0.00 0.16 0.00 96 1008.5
20260510071522 48 0 0.0 0.0 0.00 0.16 0.00 96 1008.5
20260510071512 48 0 0.0 0.0 0.00 0.16 0.00 96 1008.5
20260510071508 48 0 0.0 0.0 0.00 0.16 0.00 96 1008.5
20260510071459 48 0 0.0 0.0 0.00 0.16 0.00 96 1008.5
20260510071155 48 0 0.0 0.0 0.00 0.16 0.00 96 1008.5
20260510071127 48 0 0.0 0.0 0.00 0.16 0.00 96 1008.5
20260510071047 48 360 0.0 0.0 0.00 0.16 0.00 96 1008.5
20260510071004 48 0 0.0 0.0 0.00 0.16 0.00 96 1008.5
20260510071000 48 0 0.0 0.0 0.00 0.16 0.00 96 1008.5
20260510070751 48 0 0.0 0.0 0.00 0.16 0.00 96 1008.5
20260510070744 48 0 0.0 0.0 0.00 0.16 0.00 96 1008.5
20260510070650 48 0 0.0 0.0 0.00 0.16 0.00 96 1008.5
20260510070627 48 0 0.0 0.0 0.00 0.16 0.00 96 1008.5
20260510070517 48 360 0.0 0.0 0.00 0.16 0.00 96 1008.5
20260510070449 48 0 0.0 0.0 0.00 0.16 0.00 96 1008.5
20260510070350 48 0 0.0 0.0 0.00 0.16 0.00 96 1008.6
20260510070250 48 0 0.0 0.0 0.00 0.16 0.00 96 1008.6
20260510070149 48 0 0.0 0.0 0.00 0.16 0.00 96 1008.6
20260510070046 47 0 0.0 0.0 0.00 0.16 0.00 96 1008.6
20260510070022 48 0 0.0 0.0 0.00 0.16 0.00 96 1008.6
20260510070017 48 360 0.0 0.0 0.00 0.16 0.00 96 1008.6
20260510065948 47 0 0.0 0.0 0.00 0.16 0.00 96 1008.6
20260510065845 47 0 0.0 0.0 0.00 0.16 0.00 96 1008.6
20260510065745 47 0 0.0 0.0 0.00 0.16 0.00 96 1008.6
20260510065645 47 0 0.0 0.0 0.00 0.16 0.00 96 1008.6
20260510065532 47 360 0.0 0.0 0.00 0.16 0.00 96 1008.7
20260510065519 47 0 0.0 0.0 0.00 0.16 0.00 96 1008.6
20260510065444 47 0 0.0 0.0 0.00 0.16 0.00 96 1008.7
20260510065344 47 0 0.0 0.0 0.00 0.16 0.00 96 1008.7
20260510065243 47 0 0.0 0.0 0.00 0.16 0.00 96 1008.6
20260510065143 47 0 0.0 0.0 0.00 0.16 0.00 96 1008.6
20260510065102 47 0 0.0 0.0 0.00 0.16 0.00 96 1008.6
20260510065052 47 0 0.0 0.0 0.00 0.16 0.00 96 1008.7
20260510065017 47 360 0.0 0.0 0.00 0.16 0.00 96 1008.6
20260510064842 47 0 0.0 0.0 0.00 0.16 0.00 96 1008.6
20260510064810 47 0 0.0 0.0 0.00 0.16 0.00 96 1008.4
20260510064742 47 0 0.0 0.0 0.00 0.16 0.00 96 1008.5
20260510064713 47 0 0.0 0.0 0.00 0.16 0.00 96 1008.5
20260510064705 47 0 0.0 0.0 0.00 0.16 0.00 96 1008.5
20260510064656 47 0 0.0 0.0 0.00 0.16 0.00 96 1008.4
20260510064547 47 360 0.0 0.0 0.00 0.16 0.00 96 1008.5
20260510064341 47 0 0.0 0.0 0.00 0.16 0.00 96 1008.5
20260510064240 47 0 0.0 0.0 0.00 0.16 0.00 96 1008.4
20260510064140 47 0 0.0 0.0 0.00 0.16 0.00 96 1008.4
20260510064018 47 360 0.0 0.0 0.00 0.16 0.00 96 1008.4
20260510064014 47 0 0.0 0.0 0.00 0.16 0.00 96 1008.4
20260510063939 47 0 0.0 0.0 0.00 0.16 0.00 96 1008.4
20260510063838 47 0 0.0 0.0 0.00 0.16 0.00 96 1008.3
20260510063738 47 0 0.0 0.0 0.00 0.16 0.00 96 1008.3
20260510063637 47 0 0.0 0.0 0.00 0.16 0.00 96 1008.3
20260510063517 47 360 0.0 0.0 0.00 0.16 0.00 96 1008.3
20260510063515 47 0 0.0 0.0 0.00 0.16 0.00 96 1008.3
20260510063436 47 0 0.0 0.0 0.00 0.16 0.00 96 1008.3
20260510063337 47 0 0.0 0.0 0.00 0.16 0.00 96 1008.3
20260510063253 47 0 0.0 0.0 0.00 0.16 0.00 96 1008.2
20260510063249 47 0 0.0 0.0 0.00 0.16 0.00 96 1008.1
20260510063245 47 0 0.0 0.0 0.00 0.16 0.00 96 1008.3
20260510063119 47 0 0.0 0.0 0.00 0.16 0.00 96 1008.1
20260510063017 47 360 0.0 0.0 0.00 0.16 0.00 96 1008.2
20260510062933 47 0 0.0 0.0 0.00 0.16 0.00 96 1008.2
20260510062833 47 0 0.0 0.0 0.00 0.16 0.00 96 1008.1
20260510062732 47 0 0.0 0.0 0.00 0.16 0.00 96 1008.1
20260510062632 47 0 0.0 0.0 0.00 0.16 0.00 96 1008.1
20260510062518 47 360 0.0 0.0 0.00 0.16 0.00 96 1008.0
20260510062514 47 0 0.0 0.0 0.00 0.16 0.00 96 1008.1
20260510062430 47 0 0.0 0.0 0.00 0.16 0.00 96 1008.0
20260510062347 47 0 0.0 0.0 0.00 0.16 0.00 96 1008.0
20260510062343 47 0 0.0 0.0 0.00 0.16 0.00 96 1008.0
20260510062339 47 0 0.0 0.0 0.00 0.16 0.00 96 1008.0
20260510062157 47 0 0.0 0.0 0.00 0.16 0.00 96 1007.9
20260510062151 47 0 0.0 0.0 0.00 0.16 0.00 96 1008.0
20260510062142 47 0 0.0 0.0 0.00 0.16 0.00 96 1008.0
20260510062017 47 360 0.0 0.0 0.00 0.16 0.00 96 1007.9
20260510061827 47 0 0.0 0.0 0.00 0.16 0.00 96 1007.9
20260510061732 47 0 0.0 0.0 0.00 0.16 0.00 96 1008.0
20260510061727 47 0 0.0 0.0 0.00 0.16 0.00 96 1008.0
20260510061627 47 0 0.0 0.0 0.00 0.16 0.00 96 1008.0
20260510061618 47 0 0.0 0.0 0.00 0.16 0.00 96 1008.0
20260510061517 47 360 0.0 0.0 0.00 0.16 0.00 96 1008.0
20260510061426 47 0 0.0 0.0 0.00 0.16 0.00 96 1008.0
20260510061326 47 0 0.0 0.0 0.00 0.16 0.00 96 1008.0
20260510061225 47 0 0.0 0.0 0.00 0.16 0.00 96 1008.0
20260510061125 47 0 0.0 0.0 0.00 0.16 0.00 96 1008.0
20260510061019 47 0 0.0 0.0 0.00 0.16 0.00 96 1008.0
20260510061017 47 360 0.0 0.0 0.00 0.16 0.00 96 1008.0
20260510060951 47 0 0.0 0.0 0.00 0.16 0.00 96 1008.0
20260510060946 47 0 0.0 0.0 0.00 0.16 0.00 96 1008.0
20260510060832 47 0 0.0 0.0 0.00 0.16 0.00 96 1008.0
20260510060659 47 0 0.0 0.0 0.00 0.16 0.00 96 1008.0
20260510060649 47 0 0.0 0.0 0.00 0.16 0.00 96 1008.0
20260510060517 47 360 0.0 0.0 0.00 0.16 0.00 96 1008.0
20260510060430 47 0 0.0 0.0 0.00 0.16 0.00 96 1008.0
20260510060234 47 0 0.0 0.0 0.00 0.16 0.00 95 1008.0
20260510060230 47 0 0.0 0.0 0.00 0.16 0.00 95 1008.0
20260510060020 47 0 0.0 0.0 0.00 0.16 0.00 95 1008.1
20260510060017 47 360 0.0 0.0 0.00 0.16 0.00 95 1008.0
20260510060011 47 0 0.0 0.0 0.00 0.16 0.00 95 1008.0
20260510055920 47 0 0.0 0.0 0.00 0.16 0.00 95 1008.0
20260510055818 47 0 0.0 0.0 0.00 0.16 0.00 95 1008.1
20260510055718 47 0 0.0 0.0 0.00 0.16 0.00 95 1008.1
20260510055617 47 0 0.0 0.0 0.00 0.16 0.00 95 1008.1
20260510055517 47 360 0.0 0.0 0.00 0.16 0.00 95 1008.2
20260510055510 47 0 0.0 0.0 0.00 0.16 0.00 95 1008.2
20260510055416 47 0 0.0 0.0 0.00 0.16 0.00 95 1008.2
20260510055316 47 0 0.0 0.0 0.00 0.16 0.00 95 1008.2
20260510055215 47 0 0.0 0.0 0.00 0.16 0.00 95 1008.2
20260510055115 47 0 0.0 0.0 0.00 0.16 0.00 95 1008.2
20260510055017 47 360 0.0 0.0 0.00 0.16 0.00 95 1008.2
20260510055009 47 0 0.0 0.0 0.00 0.16 0.00 95 1008.2
20260510054927 47 0 0.0 0.0 0.00 0.16 0.00 95 1008.2
20260510054923 47 0 0.0 0.0 0.00 0.16 0.00 95 1008.2
20260510054714 47 0 0.0 0.0 0.00 0.16 0.00 95 1008.2
20260510054613 47 0 0.0 0.0 0.00 0.16 0.00 95 1008.2
20260510054547 47 360 0.0 0.0 0.00 0.16 0.00 95 1008.2
20260510054510 47 0 0.0 0.0 0.00 0.16 0.00 95 1008.2
20260510054445 47 0 0.0 0.0 0.00 0.16 0.00 95 1008.3
20260510054437 47 0 0.0 0.0 0.00 0.16 0.00 95 1008.2
20260510054324 47 0 0.0 0.0 0.00 0.16 0.00 95 1008.3
20260510054121 47 0 0.0 0.0 0.00 0.16 0.00 95 1008.3
20260510054112 47 0 0.0 0.0 0.00 0.16 0.00 95 1008.3
20260510054017 47 360 0.0 0.0 0.00 0.16 0.00 95 1008.4
20260510053913 47 0 0.0 0.0 0.00 0.16 0.00 95 1008.4
20260510053812 47 0 0.0 0.0 0.00 0.16 0.00 95 1008.3
20260510053725 47 0 0.0 0.0 0.00 0.16 0.00 95 1008.3
20260510053712 47 0 0.0 0.0 0.00 0.16 0.00 95 1008.3
20260510053619 47 0 0.0 0.0 0.00 0.16 0.00 95 1008.3
20260510053610 47 0 0.0 0.0 0.00 0.16 0.00 95 1008.3
20260510053532 47 360 0.0 0.0 0.00 0.16 0.00 95 1008.3
20260510053410 47 0 0.0 0.0 0.00 0.16 0.00 96 1008.3
20260510053309 47 0 0.0 0.0 0.00 0.16 0.00 96 1008.3
20260510053209 47 0 0.0 0.0 0.00 0.16 0.00 96 1008.3
20260510053125 47 0 0.0 0.0 0.00 0.16 0.00 96 1008.3
20260510053119 47 0 0.0 0.0 0.00 0.16 0.00 96 1008.3
20260510053017 47 360 0.0 0.0 0.00 0.16 0.00 96 1008.3
20260510053006 47 0 0.0 0.0 0.00 0.16 0.00 96 1008.3
20260510052907 47 0 0.0 0.0 0.00 0.16 0.00 95 1008.3
20260510052821 47 0 0.0 0.0 0.00 0.16 0.00 95 1008.3
20260510052816 47 0 0.0 0.0 0.00 0.16 0.00 96 1008.3
20260510052605 47 0 0.0 0.0 0.00 0.16 0.00 95 1008.3
20260510052525 47 0 0.0 0.0 0.00 0.16 0.00 95 1008.3
20260510052517 47 360 0.0 0.0 0.00 0.16 0.00 95 1008.4
20260510052515 47 0 0.0 0.0 0.00 0.16 0.00 95 1008.4
20260510052318 47 0 0.0 0.0 0.00 0.16 0.00 95 1008.4
20260510052313 47 0 0.0 0.0 0.00 0.16 0.00 95 1008.3
20260510052102 47 0 0.0 0.0 0.00 0.16 0.00 95 1008.3
20260510052038 47 0 0.0 0.0 0.00 0.16 0.00 95 1008.3
20260510052033 47 0 0.0 0.0 0.00 0.16 0.00 95 1008.4
20260510052020 47 0 0.0 0.0 0.00 0.16 0.00 95 1008.4
20260510052017 47 360 0.0 0.0 0.00 0.16 0.00 95 1008.4
20260510051701 47 0 0.0 0.0 0.00 0.16 0.00 95 1008.3
20260510051600 47 0 0.0 0.0 0.00 0.16 0.00 95 1008.3
20260510051517 47 360 0.0 0.0 0.00 0.16 0.00 95 1008.4
20260510051501 47 0 0.0 0.0 0.00 0.16 0.00 95 1008.4
20260510051400 47 0 0.0 0.0 0.00 0.16 0.00 95 1008.4
20260510051300 47 0 0.0 0.0 0.00 0.16 0.00 95 1008.4
20260510051200 47 0 0.0 0.0 0.00 0.16 0.00 95 1008.4
20260510051059 47 0 0.0 0.0 0.00 0.16 0.00 95 1008.3
20260510051017 47 360 0.0 0.0 0.00 0.16 0.00 95 1008.3
20260510051005 47 0 0.0 0.0 0.00 0.16 0.00 95 1008.3
20260510050958 47 0 0.0 0.0 0.00 0.16 0.00 95 1008.3
20260510050858 47 0 0.0 0.0 0.00 0.16 0.00 95 1008.3
20260510050758 47 0 0.0 0.0 0.00 0.16 0.00 95 1008.3
20260510050657 47 0 0.0 0.0 0.00 0.16 0.00 95 1008.3
20260510050557 47 0 0.0 0.0 0.00 0.16 0.00 95 1008.3
20260510050517 47 360 0.0 0.0 0.00 0.16 0.00 95 1008.3
20260510050504 47 0 0.0 0.0 0.00 0.16 0.00 95 1008.3
20260510050456 47 0 0.0 0.0 0.00 0.16 0.00 95 1008.3
20260510050426 47 0 0.0 0.0 0.00 0.16 0.00 95 1008.4
20260510050419 47 0 0.0 0.0 0.00 0.16 0.00 95 1008.4
20260510050414 47 0 0.0 0.0 0.00 0.16 0.00 95 1008.4
20260510050108 47 0 0.0 0.0 0.00 0.16 0.00 95 1008.4
20260510050059 47 0 0.0 0.0 0.00 0.16 0.00 95 1008.4
20260510050032 47 360 0.0 0.0 0.00 0.16 0.00 95 1008.4
20260510045852 47 0 0.0 0.0 0.00 0.16 0.00 95 1008.4
20260510045751 47 0 0.0 0.0 0.00 0.16 0.00 95 1008.5
20260510045651 47 0 0.0 0.0 0.00 0.16 0.00 95 1008.5
20260510045548 47 0 0.0 0.0 0.00 0.16 0.00 95 1008.5
20260510045517 47 360 0.0 0.0 0.00 0.16 0.00 95 1008.6
20260510045507 47 0 0.0 0.0 0.00 0.16 0.00 95 1008.5
20260510045456 47 0 0.0 0.0 0.00 0.16 0.00 95 1008.5
20260510045247 47 0 0.0 0.0 0.00 0.16 0.00 95 1008.5
20260510045146 47 0 0.0 0.0 0.00 0.16 0.00 95 1008.5
20260510045046 47 0 0.0 0.0 0.00 0.16 0.00 95 1008.5
20260510045017 47 360 0.0 0.0 0.00 0.16 0.00 95 1008.6
20260510044945 47 0 0.0 0.0 0.00 0.16 0.00 95 1008.5
20260510044846 47 0 0.0 0.0 0.00 0.16 0.00 95 1008.6
20260510044745 47 0 0.0 0.0 0.00 0.16 0.00 95 1008.6
20260510044645 47 0 0.0 0.0 0.00 0.16 0.00 95 1008.6
20260510044545 47 0 0.0 0.0 0.00 0.16 0.00 95 1008.6
20260510044528 47 0 0.0 0.0 0.00 0.16 0.00 95 1008.6
20260510044517 47 360 0.0 0.0 0.00 0.16 0.00 95 1008.7
20260510044414 47 0 0.0 0.0 0.00 0.16 0.00 95 1008.6
20260510044301 47 0 0.0 0.0 0.00 0.16 0.00 95 1008.6
20260510044047 47 360 0.0 0.0 0.00 0.16 0.00 95 1008.7
20260510043942 47 0 0.0 0.0 0.00 0.16 0.00 95 1008.6
20260510043841 47 0 0.0 0.0 0.00 0.16 0.00 95 1008.6
20260510043741 47 0 0.0 0.0 0.00 0.16 0.00 95 1008.6
20260510043640 47 0 0.0 0.0 0.00 0.16 0.00 95 1008.6
20260510043547 47 360 0.0 0.0 0.00 0.16 0.00 95 1008.7
20260510043540 47 0 0.0 0.0 0.00 0.16 0.00 95 1008.6
20260510043439 47 0 0.0 0.0 0.00 0.16 0.00 95 1008.6
20260510043339 47 0 0.0 0.0 0.00 0.16 0.00 95 1008.6
20260510043252 47 0 0.0 0.0 0.00 0.16 0.00 95 1008.7
20260510043247 47 0 0.0 0.0 0.00 0.16 0.00 95 1008.6
20260510043047 47 360 0.0 0.0 0.00 0.16 0.00 95 1008.7
20260510043037 47 0 0.0 0.0 0.00 0.16 0.00 95 1008.6
20260510042936 47 0 0.0 0.0 0.00 0.16 0.00 95 1008.6
20260510042836 47 0 0.0 0.0 0.00 0.16 0.00 95 1008.7
20260510042735 47 0 0.0 0.0 0.00 0.16 0.00 95 1008.6
20260510042635 47 0 0.0 0.0 0.00 0.16 0.00 95 1008.6
20260510042535 47 0 0.0 0.0 0.00 0.16 0.00 95 1008.6
20260510042518 47 360 0.0 0.0 0.00 0.16 0.00 95 1008.7
20260510042434 47 0 0.0 0.0 0.00 0.16 0.00 95 1008.6
20260510042333 47 0 0.0 0.0 0.00 0.16 0.00 95 1008.6
20260510042233 47 0 0.0 0.0 0.00 0.16 0.00 95 1008.6
20260510042148 47 0 0.0 0.0 0.00 0.16 0.00 95 1008.7
20260510042142 47 0 0.0 0.0 0.00 0.16 0.00 95 1008.6
20260510042017 47 360 0.0 0.0 0.00 0.16 0.00 95 1008.7
20260510041933 47 0 0.0 0.0 0.00 0.16 0.00 95 1008.6
20260510041833 47 0 0.0 0.0 0.00 0.16 0.00 95 1008.7
20260510041732 47 0 0.0 0.0 0.00 0.16 0.00 95 1008.7
20260510041632 47 0 0.0 0.0 0.00 0.16 0.00 95 1008.7
20260510041530 47 0 0.0 0.0 0.00 0.16 0.00 95 1008.7
20260510041517 47 360 0.0 0.0 0.00 0.16 0.00 95 1008.8
20260510041429 47 0 0.0 0.0 0.00 0.16 0.00 95 1008.7
20260510041344 47 0 0.0 0.0 0.01 0.16 0.00 95 1008.7
20260510041339 47 0 0.0 0.0 0.01 0.16 0.00 95 1008.6
20260510041215 47 0 0.0 0.0 0.01 0.16 0.00 95 1008.7
20260510041129 47 0 0.0 0.0 0.01 0.16 0.00 95 1008.7
20260510041102 47 360 0.0 0.0 0.01 0.16 0.00 95 1008.8
20260510041059 47 0 0.0 0.0 0.01 0.16 0.00 95 1008.6
20260510040928 47 0 0.0 0.0 0.01 0.16 0.00 95 1008.7
20260510040828 47 0 0.0 0.0 0.01 0.16 0.00 95 1008.6
20260510040728 47 0 0.0 0.0 0.01 0.16 0.00 95 1008.7
20260510040627 47 0 0.0 0.0 0.01 0.16 0.00 95 1008.7
20260510040602 47 360 0.0 0.0 0.01 0.16 0.00 95 1008.8
20260510040526 47 0 0.0 0.0 0.01 0.16 0.00 95 1008.7
20260510040440 47 0 0.0 0.0 0.01 0.16 0.00 95 1008.7
20260510040435 47 0 0.0 0.0 0.01 0.16 0.00 95 1008.7
20260510040224 47 0 0.0 0.0 0.01 0.16 0.00 95 1008.7
20260510040125 47 0 0.0 0.0 0.01 0.16 0.00 95 1008.7
20260510040055 47 0 0.0 0.0 0.01 0.16 0.16 94 1008.8
20260510040047 47 360 0.0 0.0 0.01 0.16 0.00 94 1008.8
20260510040042 47 0 0.0 0.0 0.01 0.16 0.16 94 1008.7
20260510035810 47 0 0.0 0.0 0.01 0.16 0.16 94 1008.7
20260510035759 47 0 0.0 0.0 0.01 0.16 0.16 94 1008.8
20260510035646 47 0 0.0 0.0 0.01 0.16 0.16 94 1008.8
20260510035637 47 0 0.0 0.0 0.01 0.16 0.16 94 1008.7
20260510035517 47 360 0.0 0.0 0.01 0.16 0.16 94 1008.8
20260510035322 47 0 0.0 0.0 0.01 0.16 0.16 94 1008.7
20260510035222 47 0 0.0 0.0 0.01 0.16 0.16 94 1008.7
20260510035120 47 0 0.0 0.0 0.01 0.16 0.16 94 1008.7
20260510035101 47 0 0.0 0.0 0.01 0.16 0.16 94 1008.7
20260510035017 47 360 0.0 0.0 0.01 0.16 0.16 94 1008.8
20260510034951 47 0 0.0 0.0 0.01 0.16 0.16 94 1008.7
20260510034937 47 0 0.0 0.0 0.01 0.16 0.16 94 1008.7
20260510034710 47 0 0.0 0.0 0.01 0.16 0.16 94 1008.7
20260510034619 47 0 0.0 0.0 0.01 0.16 0.16 95 1008.7
20260510034550 47 0 0.0 0.0 0.01 0.16 0.16 95 1008.7
20260510034517 47 360 0.0 0.0 0.01 0.16 0.16 95 1008.8
20260510034418 47 0 0.0 0.0 0.01 0.16 0.16 94 1008.7
20260510034317 47 0 0.0 0.0 0.01 0.16 0.16 94 1008.7
20260510034217 47 0 0.0 0.0 0.01 0.16 0.16 94 1008.7
20260510034117 47 0 0.0 0.0 0.01 0.16 0.16 94 1008.7
20260510034017 48 360 0.0 0.0 0.01 0.16 0.16 94 1008.7
20260510033916 47 0 0.0 0.0 0.01 0.16 0.16 94 1008.6
20260510033815 48 0 0.0 0.0 0.01 0.16 0.16 94 1008.6
20260510033715 48 0 0.0 0.0 0.01 0.16 0.16 94 1008.6
20260510033628 48 0 0.0 0.0 0.01 0.16 0.16 94 1008.6
20260510033622 48 0 0.0 0.0 0.01 0.16 0.16 94 1008.6
20260510033517 48 360 0.0 0.0 0.01 0.16 0.16 94 1008.7
20260510033412 48 0 0.0 0.0 0.01 0.16 0.16 94 1008.6
20260510033312 48 0 0.0 0.0 0.01 0.16 0.16 94 1008.5
20260510033212 48 0 0.0 0.0 0.01 0.16 0.16 94 1008.6
20260510033112 48 0 0.0 0.0 0.01 0.16 0.16 94 1008.4
20260510033017 48 360 0.0 0.0 0.01 0.16 0.16 94 1008.6
20260510033011 48 0 0.0 0.0 0.01 0.16 0.16 94 1008.5
20260510032946 48 0 0.0 0.0 0.01 0.16 0.16 94 1008.5
20260510032942 48 0 0.0 0.0 0.01 0.16 0.16 94 1008.5
20260510032936 48 0 0.0 0.0 0.01 0.16 0.16 94 1008.5
20260510032928 48 0 0.0 0.0 0.01 0.16 0.16 94 1008.4
20260510032610 48 0 0.0 0.0 0.01 0.16 0.16 94 1008.5
20260510032547 48 360 0.0 0.0 0.01 0.16 0.16 94 1008.6
20260510032508 48 0 0.0 0.0 0.01 0.16 0.16 94 1008.5
20260510032439 48 0 0.0 0.0 0.01 0.16 0.16 94 1008.5
20260510032408 48 0 0.0 0.0 0.01 0.16 0.16 94 1008.5
20260510032320 48 0 0.0 0.0 0.01 0.16 0.16 94 1008.5
20260510032315 48 0 0.0 0.0 0.01 0.16 0.16 94 1008.5
20260510032105 48 0 0.0 0.0 0.01 0.16 0.16 94 1008.5
20260510032017 48 360 0.0 0.0 0.01 0.16 0.16 94 1008.5
20260510032004 48 0 0.0 0.0 0.01 0.16 0.16 94 1008.4
20260510031919 48 0 0.0 0.0 0.01 0.16 0.16 94 1008.4
20260510031913 48 0 0.0 0.0 0.01 0.16 0.16 94 1008.4
20260510031704 48 0 0.0 0.0 0.01 0.16 0.16 94 1008.4
20260510031604 48 0 0.0 0.0 0.01 0.16 0.16 94 1008.4
20260510031517 48 360 0.0 0.0 0.01 0.16 0.16 94 1008.5
20260510031503 48 0 0.0 0.0 0.01 0.16 0.16 94 1008.4
20260510031437 48 0 0.0 0.0 0.01 0.16 0.16 94 1008.4
20260510031402 48 0 0.0 0.0 0.01 0.16 0.16 94 1008.4
20260510031302 48 0 0.0 0.0 0.00 0.15 0.15 94 1008.3
20260510031202 48 0 0.0 0.0 0.00 0.15 0.15 94 1008.3
20260510031101 48 0 0.0 0.0 0.00 0.15 0.15 94 1008.2
20260510031047 48 360 0.0 0.0 0.00 0.15 0.15 94 1008.3
20260510031001 48 0 0.0 0.0 0.00 0.15 0.15 94 1008.2
20260510030935 48 0 0.0 0.0 0.00 0.15 0.15 94 1008.2
20260510030900 48 0 0.0 0.0 0.00 0.15 0.15 94 1008.2
20260510030758 48 0 0.0 0.0 0.00 0.15 0.15 94 1008.2
20260510030658 48 0 0.0 0.0 0.00 0.15 0.15 94 1008.2
20260510030557 49 0 0.0 0.0 0.00 0.15 0.15 94 1008.2
20260510030517 49 360 0.0 0.0 0.00 0.15 0.15 94 1008.3
20260510030435 49 0 0.0 0.0 0.00 0.15 0.15 94 1008.2
20260510030357 49 0 0.0 0.0 0.00 0.15 0.15 94 1008.2
20260510030256 49 0 0.0 0.0 0.00 0.15 0.15 94 1008.2
20260510030214 49 0 0.0 0.0 0.00 0.15 0.15 94 1008.2
20260510030210 49 0 0.0 0.0 0.00 0.15 0.15 94 1008.2
20260510030205 49 0 0.0 0.0 0.00 0.15 0.15 94 1008.2
20260510030039 49 0 0.0 0.0 0.00 0.15 0.15 94 1008.2
20260510030017 49 360 0.0 0.0 0.00 0.15 0.15 94 1008.3
20260510025854 49 0 0.0 0.0 0.00 0.15 0.15 94 1008.1
20260510025837 49 0 0.0 0.0 0.00 0.15 0.15 94 1008.1
20260510025833 49 0 0.0 0.0 0.00 0.15 0.15 94 1008.1
20260510025827 49 0 0.0 0.0 0.00 0.15 0.15 94 1008.2
20260510025820 49 0 0.0 0.0 0.00 0.15 0.15 94 1008.1
20260510025517 49 360 0.0 0.0 0.00 0.15 0.15 94 1008.3
20260510025432 49 0 0.0 0.0 0.00 0.15 0.15 94 1008.2
20260510025351 49 0 0.0 0.0 0.00 0.15 0.15 94 1008.1
20260510025251 49 0 0.0 0.0 0.00 0.15 0.15 94 1008.1
20260510025151 49 0 0.0 0.0 0.00 0.15 0.15 94 1008.2
20260510025126 49 0 0.0 0.0 0.00 0.15 0.15 94 1008.1
20260510025122 49 0 0.0 0.0 0.00 0.15 0.15 94 1008.1
20260510025114 49 0 0.0 0.0 0.00 0.15 0.15 94 1008.1
20260510025017 49 360 0.0 0.0 0.00 0.15 0.15 94 1008.2
20260510025000 49 0 0.0 0.0 0.00 0.15 0.15 94 1008.1
20260510024804 49 0 0.0 0.0 0.00 0.15 0.15 94 1008.2
20260510024758 49 0 0.0 0.0 0.00 0.15 0.15 94 1008.2
20260510024548 49 0 0.0 0.0 0.00 0.15 0.15 94 1008.2
20260510024517 49 360 0.0 0.0 0.00 0.15 0.15 94 1008.2
20260510024507 49 0 0.0 0.0 0.00 0.15 0.15 94 1008.2
20260510024458 49 0 0.0 0.0 0.00 0.15 0.15 94 1008.1
20260510024247 49 0 0.0 0.0 0.00 0.15 0.15 94 1008.2
20260510024147 49 0 0.0 0.0 0.00 0.15 0.15 94 1008.2
20260510024046 49 0 0.0 0.0 0.00 0.15 0.15 94 1008.2
20260510024017 49 360 0.0 0.0 0.00 0.15 0.15 93 1008.3
20260510023929 49 0 0.0 0.0 0.00 0.15 0.15 93 1008.2
20260510023845 49 0 0.0 0.0 0.00 0.15 0.15 93 1008.2
20260510023745 49 0 0.0 0.0 0.00 0.15 0.15 93 1008.2
20260510023644 49 0 0.0 0.0 0.00 0.15 0.15 93 1008.2
20260510023557 49 0 0.0 0.0 0.00 0.15 0.15 93 1008.1
20260510023552 49 0 0.0 0.0 0.00 0.15 0.15 93 1008.2
20260510023517 49 360 0.0 0.0 0.00 0.15 0.15 93 1008.2
20260510023429 49 0 0.0 0.0 0.00 0.15 0.15 93 1008.1
20260510023344 49 0 0.0 0.0 0.00 0.15 0.15 93 1008.1
20260510023243 49 0 0.0 0.0 0.00 0.15 0.15 93 1008.1
20260510023143 50 0 0.0 0.0 0.00 0.15 0.15 94 1008.1
20260510023056 50 0 0.0 0.0 0.00 0.15 0.15 94 1008.1
20260510023051 50 0 0.0 0.0 0.00 0.15 0.15 94 1008.1
20260510023033 50 360 0.0 0.0 0.00 0.15 0.15 94 1008.2
20260510022928 50 0 0.0 0.0 0.00 0.15 0.15 94 1008.1
20260510022842 50 0 0.0 0.0 0.00 0.15 0.15 94 1008.1
20260510022741 50 0 0.0 0.0 0.00 0.15 0.15 94 1008.1
20260510022648 50 0 0.0 0.0 0.00 0.15 0.15 94 1008.1
20260510022641 50 0 0.0 0.0 0.00 0.15 0.15 94 1008.1
20260510022540 50 0 0.0 0.0 0.00 0.15 0.15 94 1008.1
20260510022530 50 0 0.0 0.0 0.00 0.15 0.15 94 1008.1
20260510022517 50 360 0.0 0.0 0.00 0.15 0.15 94 1008.2
20260510022339 50 0 0.0 0.0 0.00 0.15 0.15 94 1008.1
20260510022239 50 0 0.0 0.0 0.00 0.15 0.15 94 1008.1
20260510022147 50 0 0.0 0.0 0.00 0.15 0.15 93 1008.1
20260510022139 50 0 0.0 0.0 0.00 0.15 0.15 93 1008.1
20260510022040 50 0 0.0 0.0 0.00 0.15 0.15 93 1008.0
20260510022031 50 0 0.0 0.0 0.00 0.15 0.15 93 1008.1
20260510022017 50 360 0.0 0.0 0.00 0.15 0.15 93 1008.2
20260510021837 50 0 0.0 0.0 0.00 0.15 0.15 94 1008.0
20260510021737 50 0 0.0 0.0 0.00 0.15 0.15 93 1008.0
20260510021636 50 0 0.0 0.0 0.00 0.15 0.15 94 1008.0
20260510021535 50 0 0.0 0.0 0.00 0.15 0.15 94 1008.0
20260510021517 50 360 0.0 0.0 0.00 0.15 0.15 94 1008.2
20260510021426 50 0 0.0 0.0 0.00 0.15 0.15 94 1008.1
20260510021333 50 0 0.0 0.0 0.00 0.15 0.15 94 1008.0
20260510021232 50 0 0.0 0.0 0.00 0.15 0.15 94 1008.0
20260510021132 50 0 0.0 0.0 0.00 0.15 0.15 94 1008.1
20260510021032 50 0 0.0 0.0 0.00 0.15 0.15 94 1008.1
20260510021017 50 360 0.0 0.0 0.00 0.15 0.15 94 1008.2
20260510020926 50 0 0.0 0.0 0.00 0.15 0.15 94 1008.1
20260510020831 50 0 0.0 0.0 0.00 0.15 0.15 94 1008.1
20260510020729 50 0 0.0 0.0 0.00 0.15 0.15 94 1008.0
20260510020629 50 0 0.0 0.0 0.00 0.15 0.15 93 1008.1
20260510020529 51 0 0.0 0.0 0.00 0.15 0.15 93 1008.0
20260510020517 51 360 0.0 0.0 0.00 0.15 0.15 93 1008.2
20260510020424 51 0 0.0 0.0 0.00 0.15 0.15 93 1008.1
20260510020328 51 0 0.0 0.0 0.00 0.15 0.15 93 1008.1
20260510020227 51 0 0.0 0.0 0.00 0.15 0.15 93 1008.0
20260510020127 51 0 0.0 0.0 0.00 0.15 0.15 93 1008.1
20260510020032 51 360 0.0 0.0 0.00 0.15 0.15 93 1008.1
20260510020027 51 0 0.0 0.0 0.00 0.15 0.15 93 1008.0
20260510015925 51 0 0.0 0.0 0.00 0.15 0.15 93 1008.0
20260510015839 51 0 0.0 0.0 0.00 0.15 0.15 93 1008.0
20260510015834 51 0 0.0 0.0 0.00 0.15 0.15 93 1008.1
20260510015625 51 0 0.0 0.0 0.00 0.15 0.15 93 1008.0
20260510015525 51 0 0.0 0.0 0.00 0.15 0.15 93 1008.0
20260510015517 51 360 0.0 0.0 0.00 0.15 0.15 93 1008.1
20260510015447 51 0 0.0 0.0 0.00 0.15 0.15 93 1008.0
20260510015332 51 0 0.0 0.0 0.00 0.15 0.15 93 1007.9
20260510015123 51 0 0.0 0.0 0.00 0.15 0.15 93 1007.9
20260510015032 51 360 0.0 0.0 0.00 0.15 0.15 93 1008.0
20260510015022 51 0 0.0 0.0 0.00 0.15 0.15 93 1007.9
20260510014920 51 0 0.0 0.0 0.00 0.15 0.15 93 1008.0
20260510014821 51 0 0.0 0.0 0.00 0.15 0.15 93 1008.0
20260510014718 51 0 0.0 0.0 0.00 0.15 0.15 93 1007.9
20260510014618 51 0 0.0 0.0 0.00 0.15 0.15 93 1007.9
20260510014536 51 0 0.0 0.0 0.00 0.15 0.15 93 1008.0
20260510014531 51 0 0.0 0.0 0.00 0.15 0.15 93 1008.0
20260510014517 51 360 0.0 0.0 0.00 0.15 0.15 93 1008.0
20260510014417 51 0 0.0 0.0 0.00 0.15 0.15 93 1008.0
20260510014318 51 0 0.0 0.0 0.00 0.15 0.15 93 1008.0
20260510014217 51 0 0.0 0.0 0.00 0.15 0.15 93 1008.0
20260510014116 51 0 0.0 0.0 0.00 0.15 0.15 93 1008.0
20260510014017 51 360 0.0 0.0 0.00 0.15 0.15 93 1008.1
20260510013917 51 0 0.0 0.0 0.00 0.15 0.15 93 1008.1
20260510013815 51 0 0.0 0.0 0.00 0.15 0.15 93 1008.1
20260510013715 51 0 0.0 0.0 0.00 0.15 0.15 93 1008.1
20260510013614 51 0 0.0 0.0 0.00 0.15 0.15 93 1008.1
20260510013518 52 360 0.0 0.0 0.00 0.15 0.15 93 1008.0
20260510013514 51 0 0.0 0.0 0.00 0.15 0.15 93 1008.1
20260510013413 51 0 0.0 0.0 0.00 0.15 0.15 93 1008.0
20260510013327 52 0 0.0 0.0 0.00 0.15 0.15 93 1008.0
20260510013322 51 0 0.0 0.0 0.00 0.15 0.15 93 1008.1
20260510013112 52 0 0.0 0.0 0.00 0.15 0.15 93 1008.0
20260510013018 52 360 0.0 0.0 0.00 0.15 0.15 93 1008.0
20260510013012 52 0 0.0 0.0 0.00 0.15 0.15 93 1008.0
20260510012911 52 0 0.0 0.0 0.00 0.15 0.15 93 1008.0
20260510012811 52 0 0.0 0.0 0.00 0.15 0.15 93 1008.0
20260510012723 52 0 0.0 0.0 0.00 0.15 0.15 93 1008.0
20260510012718 52 0 0.0 0.0 0.00 0.15 0.15 93 1008.0
20260510012517 52 360 0.0 0.0 0.00 0.15 0.15 93 1007.9
20260510012508 52 0 0.0 0.0 0.00 0.15 0.15 93 1007.9
20260510012408 52 0 0.0 0.0 0.00 0.15 0.15 93 1007.9
20260510012308 52 0 0.0 0.0 0.00 0.15 0.15 93 1007.9
20260510012207 52 0 0.0 0.0 0.00 0.15 0.15 93 1007.9
20260510012106 52 0 0.0 0.0 0.00 0.15 0.15 93 1007.9
20260510012017 52 360 0.0 0.0 0.00 0.15 0.15 93 1008.0
20260510012005 52 0 0.0 0.0 0.00 0.15 0.15 93 1008.0
20260510011905 52 0 0.0 0.0 0.00 0.15 0.15 93 1008.0
20260510011805 52 0 0.0 0.0 0.00 0.15 0.15 93 1008.0
20260510011704 52 0 0.0 0.0 0.00 0.15 0.15 93 1008.0
20260510011604 52 0 0.0 0.0 0.00 0.15 0.15 93 1008.0
20260510011517 52 360 0.0 0.0 0.00 0.15 0.15 93 1008.0
20260510011501 52 0 0.0 0.0 0.00 0.15 0.15 93 1008.0
20260510011415 53 0 0.0 0.0 0.00 0.15 0.15 93 1007.9
20260510011401 52 0 0.0 0.0 0.00 0.15 0.15 93 1007.9
20260510011301 53 0 0.0 0.0 0.00 0.15 0.15 93 1007.9
20260510011200 53 0 0.0 0.0 0.00 0.15 0.15 93 1007.9
20260510011102 53 0 0.0 0.0 0.00 0.15 0.15 93 1007.9
20260510011017 53 360 0.0 0.0 0.00 0.15 0.15 93 1007.9
20260510011002 53 0 0.0 0.0 0.00 0.15 0.15 93 1007.9
20260510010901 53 0 0.0 0.0 0.00 0.15 0.15 93 1007.9
20260510010801 53 0 0.0 0.0 0.00 0.15 0.15 93 1007.9
20260510010701 53 0 0.0 0.0 0.00 0.15 0.15 93 1007.9
20260510010634 53 0 0.0 0.0 0.00 0.15 0.15 92 1007.8
20260510010600 53 0 0.0 0.0 0.00 0.15 0.15 93 1007.8
20260510010532 53 0 0.0 0.0 0.00 0.15 0.15 92 1007.8
20260510010524 53 0 0.0 0.0 0.00 0.15 0.15 92 1007.8
20260510010517 53 360 0.0 0.0 0.00 0.15 0.15 93 1007.8
20260510010409 53 0 0.0 0.0 0.00 0.15 0.15 92 1007.8
20260510010200 53 0 0.0 0.0 0.00 0.15 0.15 92 1007.8
20260510010059 53 0 0.0 0.0 0.00 0.15 0.15 92 1007.8
20260510010017 53 360 0.0 0.0 0.00 0.15 0.15 92 1007.7
20260510005958 53 0 0.0 0.0 0.00 0.15 0.15 92 1007.7
20260510005912 53 0 0.0 0.0 0.00 0.15 0.15 92 1007.7
20260510005857 53 0 0.0 0.0 0.00 0.15 0.15 92 1007.7
20260510005757 53 0 0.0 0.0 0.00 0.15 0.15 92 1007.7
20260510005656 53 0 0.0 0.0 0.00 0.15 0.15 92 1007.7
20260510005633 53 0 0.0 0.0 0.00 0.15 0.15 92 1007.6
20260510005555 53 0 0.0 0.0 0.00 0.15 0.15 92 1007.6
20260510005520 53 0 0.0 0.0 0.00 0.15 0.15 92 1007.6
20260510005517 53 360 0.0 0.0 0.00 0.15 0.15 92 1007.6
20260510005353 53 0 0.0 0.0 0.00 0.15 0.15 92 1007.6
20260510005253 53 0 0.0 0.0 0.00 0.15 0.15 92 1007.6
20260510005152 53 0 0.0 0.0 0.00 0.15 0.15 92 1007.6
20260510005052 53 0 0.0 0.0 0.00 0.15 0.15 92 1007.6
20260510005047 53 360 0.0 0.0 0.00 0.15 0.15 92 1007.6
20260510004952 53 0 0.0 0.0 0.00 0.15 0.15 92 1007.6
20260510004913 53 0 0.0 0.0 0.00 0.15 0.15 92 1007.5
20260510004849 53 0 0.0 0.0 0.00 0.15 0.15 92 1007.5
20260510004749 53 0 0.0 0.0 0.00 0.15 0.15 92 1007.5
20260510004701 53 0 0.0 0.0 0.00 0.15 0.15 92 1007.5
20260510004657 53 0 0.0 0.0 0.00 0.15 0.15 92 1007.5
20260510004517 54 360 0.0 0.0 0.00 0.15 0.15 92 1007.5
20260510004506 54 0 0.0 0.0 0.00 0.15 0.15 92 1007.5
20260510004455 54 0 0.0 0.0 0.00 0.15 0.15 92 1007.5
20260510004247 54 0 0.0 0.0 0.00 0.15 0.15 92 1007.5
20260510004146 54 0 0.0 0.0 0.00 0.15 0.15 91 1007.5
20260510004045 54 0 0.0 0.0 0.00 0.15 0.15 91 1007.5
20260510004017 54 360 0.0 0.0 0.00 0.15 0.15 91 1007.5
20260510003945 54 0 0.0 0.0 0.00 0.15 0.15 91 1007.5
20260510003913 54 0 0.0 0.0 0.00 0.15 0.15 91 1007.5
20260510003844 54 0 0.0 0.0 0.00 0.15 0.15 91 1007.5
20260510003744 54 0 0.0 0.0 0.00 0.15 0.15 91 1007.5
20260510003641 54 0 0.0 0.0 0.00 0.15 0.15 91 1007.5
20260510003541 54 0 0.0 0.0 0.00 0.15 0.15 91 1007.5
20260510003517 54 360 0.0 0.0 0.00 0.15 0.15 91 1007.4
20260510003441 54 0 0.0 0.0 0.00 0.15 0.15 91 1007.4
20260510003412 54 0 0.0 0.0 0.00 0.15 0.15 91 1007.5
20260510003340 54 0 0.0 0.0 0.00 0.15 0.15 91 1007.5
20260510003240 54 0 0.0 0.0 0.00 0.15 0.15 91 1007.5
20260510003140 54 0 0.0 0.0 0.00 0.15 0.15 91 1007.5
20260510003039 54 0 0.0 0.0 0.00 0.15 0.15 91 1007.5
20260510003018 54 360 0.0 0.0 0.00 0.15 0.15 91 1007.5
20260510002910 54 0 0.0 0.0 0.00 0.15 0.15 91 1007.5
20260510002838 54 0 0.0 0.0 0.00 0.15 0.15 91 1007.5
20260510002738 54 0 0.0 0.0 0.00 0.15 0.15 91 1007.5
20260510002637 54 0 0.0 0.0 0.00 0.15 0.15 91 1007.6
20260510002537 55 0 0.0 0.0 0.00 0.15 0.15 91 1007.5
20260510002517 55 360 0.0 0.0 0.00 0.15 0.15 91 1007.5
20260510002409 55 0 0.0 0.0 0.00 0.15 0.15 91 1007.5
20260510002336 55 0 0.0 0.0 0.00 0.15 0.15 91 1007.5
20260510002236 55 0 0.0 0.0 0.00 0.15 0.15 91 1007.5
20260510002135 55 0 0.0 0.0 0.00 0.15 0.15 91 1007.5
20260510002034 55 0 0.0 0.0 0.00 0.15 0.15 91 1007.5
20260510002017 55 360 0.0 0.0 0.00 0.15 0.15 91 1007.5
20260510001907 55 0 0.0 0.0 0.00 0.15 0.15 91 1007.5
20260510001834 55 0 0.0 0.0 0.00 0.15 0.15 91 1007.5
20260510001734 55 0 0.0 0.0 0.00 0.15 0.15 91 1007.5
20260510001634 55 0 0.0 0.0 0.00 0.15 0.15 91 1007.5
20260510001533 55 0 0.0 0.0 0.00 0.15 0.15 91 1007.4
20260510001517 55 360 0.0 0.0 0.00 0.15 0.15 91 1007.4
20260510001454 55 0 0.0 0.0 0.00 0.15 0.15 91 1007.4
20260510001340 55 0 0.0 0.0 0.00 0.15 0.15 91 1007.4
20260510001131 55 0 0.0 0.0 0.00 0.15 0.15 91 1007.3
20260510001030 55 0 0.0 0.0 0.00 0.15 0.15 91 1007.4
20260510001017 55 360 0.0 0.0 0.00 0.15 0.15 91 1007.3
20260510000930 55 0 0.0 0.0 0.00 0.15 0.15 91 1007.3
20260510000904 55 0 0.0 0.0 0.00 0.15 0.15 91 1007.4
20260510000830 55 0 0.0 0.0 0.00 0.15 0.15 91 1007.4
20260510000729 55 0 0.0 0.0 0.00 0.15 0.15 91 1007.4
20260510000629 55 0 0.0 0.0 0.00 0.15 0.15 91 1007.4
20260510000529 55 0 0.0 0.0 0.00 0.15 0.15 91 1007.4
20260510000517 55 360 0.0 0.0 0.00 0.15 0.15 91 1007.4
20260510000427 55 0 0.0 0.0 0.00 0.15 0.15 91 1007.4
20260510000403 55 0 0.0 0.0 0.00 0.15 0.15 90 1007.4
20260510000327 55 0 0.0 0.0 0.00 0.15 0.15 90 1007.4
20260510000227 55 0 0.0 0.0 0.00 0.15 0.15 90 1007.3
20260510000138 55 0 0.0 0.0 0.00 0.15 0.15 90 1007.4
20260510000134 55 0 0.0 0.0 0.00 0.15 0.15 90 1007.4
20260510000017 55 360 0.0 0.0 0.00 0.15 0.15 90 1007.4
20260509235945 55 0 0.0 0.0 0.00 0.15 0.15 90 1007.4
20260509235939 55 0 0.0 0.0 0.00 0.15 0.15 90 1007.4
20260509235826 55 0 0.0 0.0 0.00 0.15 0.15 90 1007.4
20260509235822 56 0 0.0 0.0 0.00 0.15 0.15 90 1007.3
20260509235816 56 0 0.0 0.0 0.00 0.15 0.15 90 1007.3
20260509235812 56 0 0.0 0.0 0.00 0.15 0.15 90 1007.3
20260509235804 55 0 0.0 0.0 0.00 0.15 0.15 90 1007.4
20260509235532 56 360 0.0 0.0 0.00 0.15 0.15 90 1007.3
20260509235431 56 0 0.0 0.0 0.00 0.15 0.15 90 1007.3
20260509235221 56 0 0.0 0.0 0.00 0.15 0.15 90 1007.3
20260509235119 56 0 0.0 0.0 0.00 0.15 0.15 90 1007.4
20260509235018 56 0 0.0 0.0 0.00 0.15 0.15 90 1007.3
20260509234919 56 0 0.0 0.0 0.00 0.15 0.15 90 1007.3
20260509234859 56 0 0.0 0.0 0.00 0.15 0.15 90 1007.4
20260509234819 56 0 0.0 0.0 0.00 0.15 0.15 90 1007.4
20260509234718 56 0 0.0 0.0 0.00 0.15 0.15 90 1007.3
20260509234618 56 0 0.0 0.0 0.00 0.15 0.15 90 1007.4
20260509234517 56 360 0.0 0.0 0.00 0.15 0.15 90 1007.4
20260509234417 56 0 0.0 0.0 0.00 0.15 0.15 90 1007.4
20260509234359 56 0 0.0 0.0 0.00 0.15 0.15 90 1007.4
20260509234314 56 0 0.0 0.0 0.00 0.15 0.15 90 1007.4
20260509234214 56 0 0.0 0.0 0.00 0.15 0.15 90 1007.4
20260509234113 56 0 0.0 0.0 0.00 0.15 0.15 90 1007.4
20260509234026 56 0 0.0 0.0 0.00 0.15 0.15 90 1007.5
20260509234022 56 0 0.0 0.0 0.00 0.15 0.15 90 1007.4
20260509234017 56 360 0.0 0.0 0.00 0.15 0.15 90 1007.4
20260509233859 56 0 0.0 0.0 0.00 0.15 0.15 90 1007.5
20260509233811 56 0 0.0 0.0 0.00 0.15 0.15 90 1007.4
20260509233711 56 0 0.0 0.0 0.00 0.15 0.15 90 1007.5
20260509233611 56 0 0.0 0.0 0.00 0.15 0.15 90 1007.4
20260509233517 56 360 0.0 0.0 0.00 0.15 0.15 90 1007.4
20260509233510 56 0 0.0 0.0 0.00 0.15 0.15 90 1007.4
20260509233426 56 0 0.0 0.0 0.00 0.15 0.15 89 1007.4
20260509233422 56 0 0.0 0.0 0.00 0.15 0.15 89 1007.5
20260509233416 56 0 0.0 0.0 0.00 0.15 0.15 89 1007.5
20260509233207 56 0 0.0 0.0 0.00 0.15 0.15 89 1007.5
20260509233105 56 0 0.0 0.0 0.00 0.15 0.15 89 1007.5
20260509233017 56 360 0.0 0.0 0.00 0.15 0.15 89 1007.5
20260509233005 56 0 0.0 0.0 0.00 0.15 0.15 89 1007.5
20260509232905 56 0 0.0 0.0 0.00 0.15 0.15 89 1007.5
20260509232858 56 0 0.0 0.0 0.00 0.15 0.15 89 1007.5
20260509232804 56 0 0.0 0.0 0.00 0.15 0.15 89 1007.5
20260509232704 56 0 0.0 0.0 0.00 0.15 0.15 89 1007.5
20260509232602 56 0 0.0 0.0 0.00 0.15 0.15 89 1007.4
20260509232517 56 360 0.0 0.0 0.00 0.15 0.15 89 1007.4
20260509232502 56 0 0.0 0.0 0.00 0.15 0.15 89 1007.4
20260509232401 56 0 0.0 0.0 0.00 0.15 0.15 89 1007.4
20260509232354 56 0 0.0 0.0 0.00 0.15 0.15 89 1007.4
20260509232300 56 0 0.0 0.0 0.00 0.15 0.15 89 1007.4
20260509232200 56 0 0.0 0.0 0.00 0.15 0.15 89 1007.4
20260509232059 56 0 0.0 0.0 0.00 0.15 0.15 89 1007.4
20260509232032 56 360 0.0 0.0 0.00 0.15 0.15 89 1007.4
20260509231959 56 0 0.0 0.0 0.00 0.15 0.15 89 1007.4
20260509231853 56 0 0.0 0.0 0.00 0.15 0.15 89 1007.4
20260509231758 56 0 0.0 0.0 0.00 0.15 0.15 89 1007.3
20260509231658 56 0 0.0 0.0 0.00 0.15 0.15 89 1007.4
20260509231558 56 0 0.0 0.0 0.00 0.15 0.15 89 1007.4
20260509231517 56 360 0.0 0.0 0.00 0.15 0.15 89 1007.4
20260509231509 56 0 0.0 0.0 0.00 0.15 0.15 90 1007.4
20260509231505 56 0 0.0 0.0 0.00 0.15 0.15 89 1007.4
20260509231352 56 0 0.0 0.0 0.00 0.15 0.15 90 1007.4
20260509231256 56 0 0.0 0.0 0.00 0.15 0.15 90 1007.4
20260509231155 56 0 0.0 0.0 0.00 0.15 0.15 90 1007.4
20260509231054 56 0 0.0 0.0 0.00 0.15 0.15 90 1007.4
20260509231017 56 360 0.0 0.0 0.00 0.15 0.15 89 1007.4
20260509230954 56 0 0.0 0.0 0.00 0.15 0.15 89 1007.4
20260509230849 56 0 0.0 0.0 0.00 0.15 0.15 89 1007.4
20260509230753 56 0 0.0 0.0 0.00 0.15 0.15 89 1007.4
20260509230653 56 0 0.0 0.0 0.00 0.15 0.15 89 1007.4
20260509230553 56 0 0.0 0.9 0.00 0.15 0.15 89 1007.4
20260509230517 56 360 0.0 0.9 0.00 0.15 0.15 89 1007.4
20260509230506 56 0 0.0 0.9 0.00 0.15 0.15 89 1007.3
20260509230502 56 0 0.0 0.9 0.00 0.15 0.15 89 1007.4
20260509230347 56 0 0.0 0.9 0.00 0.15 0.15 89 1007.3
20260509230251 56 0 0.0 0.9 0.00 0.15 0.15 89 1007.3
20260509230150 56 0 0.0 0.9 0.00 0.15 0.15 89 1007.3
20260509230050 56 0 0.0 0.9 0.00 0.15 0.15 89 1007.3
20260509230017 57 360 0.0 0.9 0.00 0.15 0.15 89 1007.3
20260509225950 56 0 0.0 0.9 0.00 0.15 0.15 89 1007.3
20260509225846 57 0 0.0 3.5 0.00 0.15 0.15 89 1007.4
20260509225748 57 0 0.0 3.5 0.00 0.15 0.15 89 1007.4
20260509225648 57 0 0.0 3.5 0.00 0.15 0.15 89 1007.4
20260509225601 57 0 0.0 3.5 0.00 0.15 0.15 90 1007.4
20260509225557 57 0 0.0 3.5 0.00 0.15 0.15 89 1007.4
20260509225517 57 360 0.0 3.5 0.00 0.15 0.15 89 1007.3
20260509225405 57 0 0.0 3.5 0.00 0.15 0.15 90 1007.4
20260509225356 57 0 0.0 3.5 0.00 0.15 0.15 90 1007.5
20260509225145 57 0 0.0 3.5 0.00 0.15 0.15 90 1007.5
20260509225045 57 0 0.0 3.5 0.00 0.15 0.15 90 1007.5
20260509225017 57 360 0.0 3.5 0.00 0.15 0.15 90 1007.4
20260509224945 57 0 0.0 3.5 0.00 0.15 0.15 91 1007.5
20260509224845 57 0 0.0 0.0 0.00 0.15 0.15 91 1007.4
20260509224742 57 0 0.0 0.0 0.00 0.15 0.15 90 1007.4
20260509224641 57 0 0.0 0.0 0.00 0.15 0.15 90 1007.4
20260509224604 57 0 0.0 0.0 0.00 0.15 0.15 90 1007.5
20260509224541 57 0 0.0 0.0 0.00 0.15 0.15 90 1007.5
20260509224517 57 360 0.0 0.0 0.00 0.15 0.15 90 1007.4
20260509224455 57 0 0.0 0.0 0.00 0.15 0.15 90 1007.5
20260509224340 57 0 0.0 0.0 0.00 0.15 0.15 90 1007.5
20260509224252 57 0 0.0 0.0 0.00 0.15 0.15 90 1007.4
20260509224248 57 0 0.0 0.0 0.00 0.15 0.15 90 1007.4
20260509224039 57 0 0.0 0.0 0.00 0.15 0.15 90 1007.5
20260509224017 57 360 0.0 0.0 0.00 0.15 0.15 90 1007.3
20260509223937 57 0 0.0 0.0 0.00 0.15 0.15 90 1007.4
20260509223837 57 0 0.0 0.0 0.00 0.15 0.15 90 1007.4
20260509223749 57 0 0.0 0.0 0.00 0.15 0.15 90 1007.4
20260509223745 57 0 0.0 0.0 0.00 0.15 0.15 90 1007.4
20260509223536 57 0 0.0 0.0 0.00 0.15 0.15 90 1007.4
20260509223517 57 360 0.0 0.0 0.00 0.15 0.15 90 1007.2
20260509223436 57 0 0.0 0.0 0.00 0.15 0.15 90 1007.3
20260509223335 57 0 0.0 0.0 0.00 0.15 0.15 90 1007.3
20260509223235 57 0 0.0 0.0 0.00 0.15 0.15 90 1007.4
20260509223147 57 0 0.0 0.0 0.00 0.15 0.15 90 1007.4
20260509223143 57 0 0.0 0.0 0.00 0.15 0.15 90 1007.4
20260509223032 57 360 0.0 0.0 0.00 0.15 0.15 90 1007.4
20260509222933 57 0 0.0 0.0 0.00 0.15 0.15 90 1007.5
20260509222833 57 0 0.0 0.0 0.00 0.15 0.15 90 1007.4
20260509222759 57 0 0.0 0.9 0.00 0.15 0.15 90 1007.5
20260509222755 57 0 0.0 0.9 0.00 0.15 0.15 90 1007.5
20260509222750 57 0 0.0 0.0 0.00 0.15 0.15 90 1007.4
20260509222518 57 360 0.0 0.9 0.00 0.15 0.15 90 1007.3
20260509222432 57 0 0.0 0.9 0.00 0.15 0.15 90 1007.4
20260509222331 57 0 0.0 0.9 0.00 0.15 0.15 89 1007.4
20260509222229 57 0 0.0 0.9 0.00 0.15 0.15 89 1007.4
20260509222220 57 0 0.0 1.7 0.00 0.15 0.15 89 1007.3
20260509222216 57 0 0.0 1.7 0.00 0.15 0.15 89 1007.3
20260509222211 57 0 0.0 1.7 0.00 0.15 0.15 89 1007.3
20260509222204 57 0 0.0 0.9 0.00 0.15 0.15 89 1007.4
20260509222035 57 360 0.0 1.7 0.00 0.15 0.15 89 1007.2
20260509221828 57 0 0.0 1.7 0.00 0.15 0.15 89 1007.3
20260509221742 57 0 0.0 1.7 0.00 0.15 0.15 90 1007.2
20260509221738 57 0 0.0 1.7 0.00 0.15 0.15 90 1007.3
20260509221527 57 0 0.0 1.7 0.00 0.15 0.15 90 1007.1
20260509221517 57 360 0.0 1.7 0.00 0.15 0.15 90 1007.0
20260509221427 57 0 0.0 1.7 0.00 0.15 0.15 90 1007.1
20260509221327 57 0 0.0 1.7 0.00 0.15 0.15 90 1007.1
20260509221227 57 0 0.0 1.7 0.00 0.15 0.15 89 1007.1
20260509221127 57 0 0.0 1.7 0.00 0.15 0.15 89 1007.1
20260509221025 57 0 0.0 1.7 0.00 0.15 0.15 89 1007.1
20260509221017 57 360 0.0 0.0 0.00 0.15 0.15 89 1006.9
20260509220925 57 0 0.0 0.0 0.00 0.15 0.15 89 1007.0
20260509220824 57 0 0.0 0.0 0.00 0.15 0.15 89 1007.0
20260509220737 57 0 0.0 0.0 0.00 0.15 0.15 89 1007.1
20260509220733 57 0 0.0 0.0 0.00 0.15 0.15 89 1007.0
20260509220551 57 0 0.0 0.0 0.00 0.15 0.15 89 1007.1
20260509220517 57 360 0.0 0.0 0.00 0.15 0.15 89 1007.0
20260509220437 57 0 0.0 0.0 0.00 0.15 0.15 89 1007.1
20260509220428 57 0 0.0 0.0 0.00 0.15 0.15 89 1007.1
20260509220221 57 0 0.0 0.0 0.00 0.15 0.15 89 1007.1
20260509220121 57 0 0.0 0.0 0.00 0.15 0.15 89 1007.1
20260509220022 57 0 0.0 0.0 0.00 0.15 0.15 89 1007.1
20260509220017 57 360 0.0 0.0 0.00 0.15 0.15 89 1007.0
20260509215920 57 0 0.0 0.0 0.00 0.15 0.15 89 1007.1
20260509215818 58 0 0.0 0.0 0.00 0.15 0.15 89 1007.1
20260509215718 58 0 0.0 0.0 0.00 0.15 0.15 89 1007.2
20260509215618 58 0 0.0 0.0 0.00 0.15 0.15 90 1007.1
20260509215517 58 360 0.0 0.0 0.00 0.15 0.15 90 1007.0
20260509215431 58 0 0.0 0.0 0.00 0.15 0.15 90 1007.1
20260509215422 58 0 0.0 0.0 0.00 0.15 0.15 90 1007.1
20260509215216 58 0 0.0 0.0 0.00 0.15 0.15 90 1007.1
20260509215116 58 0 0.0 0.0 0.00 0.15 0.15 90 1007.1
20260509215028 58 0 0.0 0.0 0.00 0.15 0.15 90 1007.2
20260509215024 58 0 0.0 0.0 0.00 0.15 0.15 90 1007.1
20260509215017 58 360 0.0 0.0 0.00 0.15 0.15 90 1007.1
20260509214814 58 0 0.0 0.0 0.00 0.15 0.15 90 1007.2
20260509214736 58 0 0.0 0.0 0.00 0.15 0.15 90 1007.2
20260509214623 58 0 0.0 0.0 0.00 0.15 0.15 90 1007.2
20260509214547 58 360 0.0 0.0 0.00 0.15 0.15 90 1007.2
20260509214414 58 0 0.0 0.0 0.00 0.15 0.15 90 1007.3
20260509214313 58 0 0.0 0.0 0.00 0.15 0.15 90 1007.3
20260509214212 58 0 0.0 0.0 0.00 0.15 0.15 90 1007.3
20260509214123 57 0 0.0 0.0 0.00 0.15 0.15 91 1007.3
20260509214119 57 0 0.0 0.0 0.00 0.15 0.15 91 1007.3
20260509214017 57 360 0.0 0.0 0.00 0.15 0.15 91 1007.2
20260509213937 57 0 0.0 0.0 0.00 0.15 0.15 90 1007.3
20260509213932 57 0 0.0 0.0 0.00 0.15 0.15 91 1007.2
20260509213924 57 0 0.0 0.0 0.00 0.15 0.15 90 1007.2
20260509213609 57 0 0.0 0.0 0.00 0.15 0.15 90 1007.3
20260509213517 57 360 0.0 0.0 0.00 0.15 0.15 90 1007.2
20260509213507 57 0 0.0 0.0 0.00 0.15 0.15 90 1007.3
20260509213407 57 0 0.0 0.0 0.00 0.15 0.15 90 1007.3
20260509213326 57 0 0.0 0.0 0.00 0.15 0.15 91 1007.3
20260509213306 57 0 0.0 0.0 0.00 0.15 0.15 91 1007.4
20260509213206 57 0 0.0 0.0 0.00 0.15 0.15 91 1007.3
20260509213106 57 0 0.0 0.0 0.00 0.15 0.15 90 1007.3
20260509213017 57 360 0.0 0.0 0.00 0.15 0.15 90 1007.3
20260509213006 57 0 0.0 0.0 0.00 0.15 0.15 90 1007.4
20260509212903 57 0 0.0 0.0 0.00 0.15 0.15 91 1007.3
20260509212826 57 0 0.0 0.0 0.00 0.15 0.15 91 1007.3
20260509212801 57 0 0.0 0.0 0.00 0.15 0.15 91 1007.5
20260509212702 57 0 0.0 0.0 0.00 0.15 0.15 91 1007.5
20260509212601 57 0 0.0 0.0 0.00 0.15 0.15 91 1007.5
20260509212517 57 360 0.0 0.0 0.00 0.15 0.15 91 1007.3
20260509212500 57 0 0.0 0.0 0.00 0.15 0.15 91 1007.4
20260509212400 57 0 0.0 0.0 0.00 0.15 0.15 91 1007.5
20260509212325 57 0 0.0 0.0 0.00 0.15 0.15 91 1007.5
20260509212300 57 0 0.0 0.0 0.00 0.15 0.15 91 1007.5
20260509212159 57 0 0.0 0.0 0.00 0.15 0.15 91 1007.5
20260509212059 57 0 0.0 0.0 0.00 0.15 0.15 90 1007.5
20260509212017 57 360 0.0 0.0 0.00 0.15 0.15 90 1007.4
20260509211959 57 0 0.0 0.0 0.00 0.15 0.15 90 1007.5
20260509211857 57 0 0.0 0.0 0.00 0.15 0.15 90 1007.6
20260509211823 57 0 0.0 0.0 0.00 0.15 0.15 90 1007.6
20260509211758 57 0 0.0 0.0 0.00 0.15 0.15 90 1007.5
20260509211656 57 0 0.0 0.0 0.00 0.15 0.15 90 1007.6
20260509211556 57 0 0.0 0.0 0.00 0.15 0.15 90 1007.5
20260509211517 58 360 0.0 0.0 0.00 0.15 0.15 91 1007.3
20260509211455 58 0 0.0 0.0 0.00 0.15 0.15 91 1007.4
20260509211355 58 0 0.0 0.0 0.00 0.15 0.15 91 1007.4
20260509211326 58 0 0.0 0.0 0.00 0.15 0.15 91 1007.4
20260509211254 58 0 0.0 0.0 0.00 0.15 0.15 91 1007.5
20260509211154 58 0 0.0 0.0 0.00 0.15 0.15 91 1007.4
20260509211054 58 0 0.0 0.0 0.00 0.15 0.15 92 1007.3
20260509211017 58 360 0.0 0.0 0.00 0.15 0.15 92 1007.2
20260509211006 58 0 0.0 0.0 0.00 0.15 0.15 93 1007.2
20260509211002 58 0 0.0 0.0 0.00 0.15 0.15 92 1007.3
20260509210823 58 0 0.0 0.0 0.00 0.15 0.15 93 1007.2
20260509210814 58 0 0.0 0.0 0.00 0.15 0.15 93 1007.2
20260509210701 58 0 0.0 0.0 0.00 0.15 0.15 93 1007.2
20260509210517 58 360 0.0 0.0 0.00 0.15 0.15 93 1007.2
20260509210452 58 0 0.0 0.0 0.00 0.15 0.15 93 1007.3
20260509210351 58 0 0.0 0.9 0.00 0.15 0.15 93 1007.3
20260509210322 58 0 0.0 1.7 0.00 0.15 0.15 93 1007.3
20260509210250 58 0 0.0 1.7 0.00 0.15 0.15 94 1007.3
20260509210151 58 0 0.0 1.7 0.00 0.15 0.15 94 1007.3
20260509210050 58 0 0.0 1.7 0.00 0.15 0.15 94 1007.3
20260509210044 58 0 0.0 1.7 0.00 0.15 0.15 94 1007.4
20260509210017 58 360 0.0 1.7 0.00 0.15 0.15 94 1007.3
20260509205949 58 0 0.0 1.7 0.00 0.15 0.15 94 1007.4
20260509205924 58 0 0.0 1.7 0.00 0.15 0.15 94 1007.4
20260509205747 58 0 0.0 1.7 0.00 0.15 0.15 94 1007.4
20260509205647 57 0 0.0 1.7 0.01 0.15 0.15 94 1007.4
20260509205547 57 0 0.0 1.7 0.01 0.15 0.15 94 1007.4
20260509205517 57 360 0.0 1.7 0.01 0.15 0.15 94 1007.3
20260509205446 57 0 0.0 1.7 0.01 0.15 0.15 94 1007.4
20260509205346 57 0 0.0 1.7 0.01 0.15 0.15 94 1007.4
20260509205318 57 0 0.0 0.9 0.01 0.15 0.15 94 1007.4
20260509205310 57 0 0.0 0.9 0.01 0.15 0.15 94 1007.3
20260509205307 57 0 0.0 0.9 0.01 0.15 0.15 94 1007.3
20260509205301 57 0 0.0 0.9 0.01 0.15 0.15 94 1007.4
20260509205017 57 360 0.0 0.9 0.01 0.15 0.15 94 1007.2
20260509204942 57 0 0.0 0.9 0.01 0.15 0.15 94 1007.3
20260509204817 57 0 0.0 0.9 0.01 0.15 0.15 94 1007.3
20260509204743 57 0 0.0 0.9 0.01 0.15 0.15 94 1007.4
20260509204642 57 0 0.0 0.9 0.01 0.15 0.15 94 1007.4
20260509204542 56 0 0.0 0.9 0.01 0.15 0.15 94 1007.4
20260509204517 56 360 0.0 0.0 0.01 0.15 0.15 94 1007.3
20260509204442 56 0 0.0 0.0 0.01 0.15 0.15 94 1007.4
20260509204402 56 0 0.0 0.0 0.01 0.15 0.15 94 1007.3
20260509204356 56 0 0.0 0.0 0.01 0.15 0.15 94 1007.4
20260509204351 56 0 0.0 0.0 0.01 0.15 0.15 94 1007.3
20260509204141 56 0 0.0 0.0 0.01 0.15 0.15 94 1007.2
20260509204041 56 0 0.0 0.0 0.02 0.15 0.15 94 1007.2
20260509204017 56 360 0.0 0.0 0.01 0.15 0.15 94 1007.1
20260509203940 56 0 0.0 0.0 0.02 0.15 0.15 94 1007.1
20260509203816 56 0 0.0 0.0 0.02 0.15 0.15 94 1007.1
20260509203739 56 0 0.0 0.0 0.02 0.15 0.15 94 1007.1
20260509203638 56 0 0.0 0.0 0.02 0.15 0.15 94 1007.1
20260509203538 56 0 0.0 0.0 0.02 0.15 0.15 94 1007.1
20260509203517 56 360 0.0 0.0 0.02 0.15 0.15 94 1007.0
20260509203438 56 0 0.0 0.0 0.02 0.15 0.15 94 1007.0
20260509203315 56 0 0.0 0.0 0.02 0.15 0.15 94 1007.1
20260509203238 56 0 0.0 0.0 0.02 0.15 0.15 94 1007.1
20260509203137 56 0 0.0 0.0 0.02 0.15 0.15 94 1007.1
20260509203037 56 0 0.0 0.0 0.02 0.15 0.15 94 1007.0
20260509203017 56 360 0.0 0.0 0.02 0.15 0.15 94 1007.0
20260509202936 56 0 0.0 0.0 0.02 0.15 0.15 94 1007.0
20260509202836 55 0 0.0 0.0 0.03 0.15 0.15 94 1006.9
20260509202814 55 0 0.0 0.0 0.03 0.15 0.15 94 1006.9
20260509202734 55 0 0.0 0.0 0.03 0.15 0.15 94 1007.0
20260509202634 55 0 0.0 0.0 0.03 0.15 0.15 94 1007.0
20260509202534 55 0 0.0 0.0 0.03 0.15 0.15 93 1007.0
20260509202517 55 360 0.0 0.0 0.03 0.15 0.15 93 1007.1
20260509202433 55 0 0.0 0.0 0.03 0.15 0.15 93 1007.1
20260509202333 55 0 0.0 0.0 0.03 0.15 0.15 93 1007.1
20260509202314 55 0 0.0 0.0 0.03 0.15 0.15 93 1007.1
20260509202232 55 0 0.0 0.0 0.03 0.15 0.15 93 1007.2
20260509202133 55 0 0.0 0.0 0.03 0.15 0.15 93 1007.2
20260509202032 55 0 0.0 0.0 0.03 0.15 0.15 93 1007.2
20260509202017 55 360 0.0 0.0 0.03 0.15 0.15 93 1007.2
20260509201932 55 0 0.0 0.0 0.03 0.15 0.15 93 1007.2
20260509201859 55 0 0.0 0.0 0.03 0.15 0.15 93 1007.2
20260509201855 55 0 0.0 0.0 0.03 0.15 0.15 93 1007.2
20260509201741 55 0 0.0 0.0 0.03 0.15 0.15 93 1007.3
20260509201547 55 360 0.0 0.0 0.03 0.15 0.15 93 1007.4
20260509201545 55 0 0.0 0.0 0.03 0.15 0.15 93 1007.4
20260509201540 55 0 0.0 0.0 0.03 0.15 0.15 93 1007.4
20260509201330 55 0 0.0 0.0 0.03 0.15 0.15 93 1007.4
20260509201313 55 0 0.0 0.0 0.03 0.15 0.15 93 1007.4
20260509201244 55 0 0.0 0.0 0.03 0.15 0.15 93 1007.5
20260509201238 55 0 0.0 0.0 0.03 0.15 0.15 93 1007.4
20260509201028 55 0 0.0 0.0 0.04 0.15 0.15 93 1007.5
20260509201017 55 360 0.0 0.0 0.04 0.15 0.15 93 1007.5
20260509200928 55 0 0.0 0.0 0.04 0.15 0.15 93 1007.5
20260509200855 55 0 0.0 0.0 0.04 0.15 0.15 93 1007.5
20260509200850 55 0 0.0 0.0 0.04 0.15 0.15 93 1007.6
20260509200736 55 0 0.0 0.0 0.04 0.15 0.15 93 1007.6
20260509200526 55 0 0.0 0.0 0.04 0.15 0.15 93 1007.5
20260509200517 55 360 0.0 0.0 0.04 0.15 0.15 93 1007.5
20260509200426 55 0 0.0 0.0 0.05 0.15 0.15 93 1007.5
20260509200325 55 0 0.0 0.0 0.06 0.15 0.15 93 1007.5
20260509200312 55 0 0.0 0.0 0.06 0.15 0.15 93 1007.4
20260509200240 55 0 0.0 0.0 0.07 0.15 0.15 93 1007.4
20260509200235 55 0 0.0 0.0 0.06 0.15 0.15 93 1007.4
20260509200025 55 0 0.0 0.0 0.07 0.15 0.15 93 1007.4
20260509200017 55 360 0.0 0.0 0.07 0.15 0.15 93 1007.3
20260509195925 55 0 0.0 0.0 0.07 0.15 0.15 93 1007.3
20260509195824 55 0 0.0 0.0 0.07 0.15 0.15 93 1007.3
20260509195812 55 0 0.0 0.0 0.07 0.15 0.15 93 1007.4
20260509195724 55 0 0.0 0.0 0.07 0.15 0.15 93 1007.4
20260509195623 55 0 0.0 0.0 0.06 0.14 0.14 93 1007.4
20260509195523 55 0 0.0 0.0 0.06 0.14 0.14 93 1007.5
20260509195517 55 360 0.0 0.0 0.06 0.14 0.14 93 1007.5
20260509195422 55 0 0.0 0.0 0.06 0.14 0.14 93 1007.5
20260509195321 55 0 0.0 0.0 0.06 0.14 0.14 93 1007.4
20260509195312 55 0 0.0 0.0 0.06 0.14 0.14 93 1007.5
20260509195221 55 0 0.0 0.0 0.06 0.14 0.14 93 1007.5
20260509195120 55 0 0.0 0.0 0.06 0.14 0.14 93 1007.6
20260509195032 56 360 0.0 0.0 0.06 0.14 0.14 93 1007.7
20260509195020 56 0 0.0 0.0 0.06 0.14 0.14 93 1007.7
20260509194920 56 0 0.0 0.0 0.06 0.14 0.14 93 1007.7
20260509194812 56 0 0.0 0.0 0.06 0.14 0.14 93 1007.7
20260509194719 56 0 0.0 0.0 0.06 0.14 0.14 93 1007.7
20260509194618 56 0 0.0 0.0 0.06 0.14 0.14 93 1007.7
20260509194518 56 0 0.0 0.0 0.06 0.14 0.14 93 1007.8
20260509194432 56 0 0.0 0.0 0.06 0.14 0.14 93 1007.7
20260509194426 56 0 0.0 0.0 0.06 0.14 0.14 92 1007.8
20260509194310 56 0 0.0 0.0 0.06 0.14 0.14 93 1007.8
20260509194217 56 0 0.0 0.0 0.06 0.14 0.14 93 1007.8
20260509194116 56 0 0.0 0.0 0.06 0.14 0.14 93 1007.8
20260509194017 56 360 0.0 0.0 0.06 0.14 0.14 93 1007.7
20260509193915 56 0 0.0 0.0 0.05 0.13 0.13 93 1007.7
20260509193842 56 0 0.0 0.0 0.05 0.13 0.13 93 1007.8
20260509193838 56 0 0.0 0.0 0.05 0.13 0.13 93 1007.8
20260509193724 56 0 0.0 0.0 0.05 0.13 0.13 93 1007.8
20260509193517 56 360 0.0 0.0 0.05 0.13 0.13 93 1007.8
20260509193514 56 0 0.0 0.0 0.05 0.13 0.13 93 1007.8
20260509193413 56 0 0.0 0.0 0.05 0.13 0.13 93 1007.8
20260509193310 56 0 0.0 0.0 0.05 0.13 0.13 92 1007.9
20260509193213 56 0 0.0 0.0 0.05 0.13 0.13 92 1007.9
20260509193112 56 0 0.0 0.0 0.05 0.13 0.13 93 1008.0
20260509193102 56 360 0.0 0.0 0.05 0.13 0.13 93 1008.0
20260509193012 56 0 0.0 0.0 0.05 0.13 0.13 93 1008.0
20260509192912 56 0 0.0 0.0 0.05 0.13 0.13 93 1008.0
20260509192809 56 0 0.0 0.0 0.04 0.12 0.12 93 1008.0
20260509192711 56 0 0.0 0.0 0.04 0.12 0.12 93 1008.0
20260509192611 56 0 0.0 0.0 0.04 0.12 0.12 93 1008.0
20260509192524 56 0 0.0 0.0 0.04 0.12 0.12 93 1008.0
20260509192519 56 0 0.0 0.0 0.04 0.12 0.12 93 1008.0
20260509192517 56 360 0.0 0.0 0.04 0.12 0.12 93 1008.0
20260509192307 56 0 0.0 1.7 0.04 0.12 0.12 93 1008.1
20260509192209 56 0 0.0 1.7 0.04 0.12 0.12 93 1008.1
20260509192108 56 0 0.0 1.7 0.04 0.12 0.12 93 1008.0
20260509192018 56 360 0.0 1.7 0.04 0.12 0.12 93 1008.0
20260509192007 56 0 0.0 1.7 0.04 0.12 0.12 93 1008.0
20260509191907 56 0 0.0 1.7 0.05 0.12 0.12 93 1008.0
20260509191808 56 0 0.0 1.7 0.05 0.12 0.12 92 1008.1
20260509191706 56 0 0.0 1.7 0.05 0.12 0.12 92 1008.1
20260509191621 56 0 0.0 1.7 0.05 0.12 0.12 92 1008.3
20260509191616 56 0 0.0 1.7 0.05 0.12 0.12 92 1008.2
20260509191548 56 360 0.0 1.7 0.05 0.12 0.12 92 1008.3
20260509191406 56 0 0.0 1.7 0.05 0.12 0.12 92 1008.4
20260509191319 56 0 0.0 3.5 0.05 0.12 0.12 92 1008.4
20260509191204 56 0 0.0 3.5 0.05 0.12 0.12 92 1008.4
20260509191104 56 0 0.0 3.5 0.05 0.12 0.12 92 1008.5
20260509191032 56 360 0.0 3.5 0.04 0.11 0.11 92 1008.5
20260509191004 56 0 0.0 3.5 0.04 0.11 0.11 92 1008.5
20260509190902 56 0 0.0 3.5 0.04 0.11 0.11 92 1008.3
20260509190803 56 0 0.0 3.5 0.04 0.11 0.11 92 1008.3
20260509190704 56 0 0.0 3.5 0.04 0.11 0.11 92 1008.3
20260509190645 56 0 0.0 3.5 0.04 0.11 0.11 92 1008.4
20260509190534 56 0 0.0 3.5 0.03 0.10 0.11 92 1008.5
20260509190527 56 0 0.0 3.5 0.04 0.11 0.11 92 1008.4
20260509190517 56 360 0.0 3.5 0.04 0.11 0.11 92 1008.4
20260509190303 56 0 0.0 0.9 0.02 0.09 0.10 92 1008.5
20260509190202 56 0 0.0 0.9 0.02 0.09 0.09 92 1008.4
20260509190018 57 360 0.0 0.0 0.02 0.08 0.08 92 1008.5
20260509190002 57 0 0.0 0.9 0.02 0.08 0.08 92 1008.5
20260509185921 57 0 0.0 0.0 0.02 0.08 0.08 92 1008.5
20260509185914 57 0 0.0 0.9 0.02 0.08 0.08 92 1008.6
20260509185905 57 0 0.0 0.0 0.02 0.08 0.08 92 1008.5
20260509185659 57 0 0.0 0.0 0.02 0.08 0.08 92 1008.5
20260509185559 57 0 0.0 0.0 0.02 0.08 0.08 92 1008.5
20260509185517 57 360 0.0 0.0 0.02 0.08 0.08 92 1008.5
20260509185458 57 0 0.0 0.0 0.02 0.08 0.08 92 1008.5
20260509185358 57 0 0.0 0.0 0.02 0.08 0.08 92 1008.5
20260509185306 57 0 0.0 0.0 0.02 0.08 0.08 92 1008.5
20260509185258 57 0 0.0 0.0 0.02 0.08 0.08 92 1008.5
20260509185210 57 0 0.0 0.0 0.02 0.08 0.08 92 1008.5
20260509185206 57 0 0.0 0.0 0.02 0.08 0.08 92 1008.5
20260509185017 57 360 0.0 0.0 0.02 0.08 0.08 92 1008.4
20260509184956 56 0 0.0 0.0 0.02 0.08 0.08 92 1008.4
20260509184856 56 0 0.0 0.0 0.02 0.08 0.08 92 1008.4
20260509184805 56 0 0.0 0.0 0.02 0.08 0.08 92 1008.4
20260509184757 56 0 0.0 0.0 0.02 0.08 0.08 92 1008.4
20260509184656 56 0 0.0 0.0 0.02 0.08 0.08 92 1008.4
20260509184607 56 0 0.0 0.0 0.02 0.08 0.08 92 1008.4
20260509184603 56 0 0.0 0.0 0.02 0.08 0.08 92 1008.5
20260509184532 57 360 0.0 0.0 0.02 0.08 0.08 92 1008.4
20260509184354 56 0 0.0 0.0 0.02 0.08 0.08 92 1008.3
20260509184303 56 0 0.0 0.0 0.03 0.08 0.08 92 1008.3
20260509184253 56 0 0.0 0.0 0.03 0.08 0.08 92 1008.3
20260509184153 56 0 0.0 0.0 0.03 0.08 0.08 92 1008.4
20260509184053 56 0 0.0 0.0 0.03 0.08 0.08 92 1008.4
20260509184018 57 360 0.0 0.0 0.03 0.08 0.08 92 1008.5
20260509183951 56 0 0.0 0.0 0.03 0.08 0.08 92 1008.5
20260509183852 56 0 0.0 0.0 0.03 0.08 0.08 92 1008.5
20260509183803 56 0 0.0 0.0 0.03 0.08 0.08 91 1008.5
20260509183750 56 0 0.0 0.0 0.03 0.08 0.08 91 1008.5
20260509183650 56 0 0.0 0.0 0.03 0.08 0.08 91 1008.5
20260509183550 56 0 0.0 0.0 0.03 0.08 0.08 91 1008.5
20260509183517 57 360 0.0 0.0 0.03 0.08 0.08 91 1008.5
20260509183450 56 0 0.0 0.0 0.03 0.08 0.08 91 1008.5
20260509183430 56 0 0.0 0.0 0.03 0.08 0.08 91 1008.5
20260509183320 57 0 0.0 0.0 0.03 0.08 0.08 91 1008.6
20260509183307 56 0 0.0 0.0 0.03 0.08 0.08 91 1008.6